Time,TemperatureF,DewpointF,PressureIn,WindDirection,WindDirectionDegrees,WindSpeedMPH,WindSpeedGustMPH,Humidity,HourlyPrecipIn,Conditions,Clouds,dailyrainin,SoftwareType,DateUTC
2013-07-01 00:00:00,71.8,53.7,29.99,West,270,9.2,12.1,53,0.00,,,0.00,WUHU216HW,2013-07-01 06:00:00,
2013-07-01 00:01:00,71.8,53.7,29.99,WSW,248,9.2,12.1,53,0.00,,,0.00,WUHU216HW,2013-07-01 06:01:00,
2013-07-01 00:05:00,71.5,53.4,29.99,West,270,8.3,12.1,53,0.00,,,0.00,WUHU216HW,2013-07-01 06:05:00,
2013-07-01 00:06:00,71.3,53.7,29.99,West,270,7.6,10.1,54,0.00,,,0.00,WUHU216HW,2013-07-01 06:06:00,
2013-07-01 00:10:00,71.3,53.7,29.99,West,270,11.4,11.4,54,0.00,,,0.00,WUHU216HW,2013-07-01 06:10:00,
2013-07-01 00:11:00,71.3,53.7,29.99,West,270,10.1,11.4,54,0.00,,,0.00,WUHU216HW,2013-07-01 06:11:00,
2013-07-01 00:15:00,72.0,53.4,29.99,WNW,293,5.4,11.4,52,0.00,,,0.00,WUHU216HW,2013-07-01 06:15:00,
2013-07-01 00:16:00,72.0,53.4,29.99,WNW,293,5.4,11.4,52,0.00,,,0.00,WUHU216HW,2013-07-01 06:16:00,
2013-07-01 00:20:00,72.4,53.2,29.99,West,270,7.6,10.1,51,0.00,,,0.00,WUHU216HW,2013-07-01 06:20:00,
2013-07-01 00:21:00,72.4,53.6,29.99,West,270,9.2,10.1,52,0.00,,,0.00,WUHU216HW,2013-07-01 06:21:00,
2013-07-01 00:22:00,72.4,53.2,29.99,West,270,7.6,9.2,51,0.00,,,0.00,WUHU216HW,2013-07-01 06:22:00,
2013-07-01 00:26:00,72.2,53.6,29.99,WNW,293,7.6,9.8,52,0.00,,,0.00,WUHU216HW,2013-07-01 06:26:00,
2013-07-01 00:27:00,72.0,53.4,29.99,West,270,7.6,9.8,52,0.00,,,0.00,WUHU216HW,2013-07-01 06:27:00,
2013-07-01 00:31:00,71.5,53.4,29.99,WNW,293,6.0,9.8,53,0.00,,,0.00,WUHU216HW,2013-07-01 06:31:00,
2013-07-01 00:32:00,71.5,53.4,29.99,NW,315,5.6,9.8,53,0.00,,,0.00,WUHU216HW,2013-07-01 06:32:00,
2013-07-01 00:36:00,71.3,53.2,29.99,West,270,9.6,9.6,53,0.00,,,0.00,WUHU216HW,2013-07-01 06:36:00,
2013-07-01 00:37:00,71.3,53.2,29.99,West,270,9.2,9.6,53,0.00,,,0.00,WUHU216HW,2013-07-01 06:37:00,
2013-07-01 00:38:00,71.1,53.0,29.99,West,270,8.7,9.6,53,0.00,,,0.00,WUHU216HW,2013-07-01 06:38:00,
2013-07-01 00:41:00,71.1,53.0,29.99,West,270,10.3,10.3,53,0.00,,,0.00,WUHU216HW,2013-07-01 06:41:00,
2013-07-01 00:42:00,71.1,53.0,29.99,West,270,10.3,10.3,53,0.00,,,0.00,WUHU216HW,2013-07-01 06:42:00,
2013-07-01 00:43:00,71.1,53.0,29.99,WSW,248,9.4,10.5,53,0.00,,,0.00,WUHU216HW,2013-07-01 06:43:00,
2013-07-01 00:46:00,71.3,53.2,29.99,West,270,8.9,10.5,53,0.00,,,0.00,WUHU216HW,2013-07-01 06:46:00,
2013-07-01 00:47:00,71.3,53.2,29.99,West,270,11.2,11.2,53,0.00,,,0.00,WUHU216HW,2013-07-01 06:47:00,
2013-07-01 00:48:00,71.5,53.4,29.99,West,270,7.6,11.2,53,0.00,,,0.00,WUHU216HW,2013-07-01 06:48:00,
2013-07-01 00:52:00,71.6,53.0,29.99,West,270,10.3,11.2,52,0.00,,,0.00,WUHU216HW,2013-07-01 06:52:00,
2013-07-01 00:53:00,72.0,53.4,29.99,West,270,10.7,11.4,52,0.00,,,0.00,WUHU216HW,2013-07-01 06:53:00,
2013-07-01 00:57:00,72.0,53.4,29.98,WNW,293,7.6,11.4,52,0.00,,,0.00,WUHU216HW,2013-07-01 06:57:00,
2013-07-01 00:58:00,71.8,53.2,29.99,West,270,8.9,11.4,52,0.00,,,0.00,WUHU216HW,2013-07-01 06:58:00,
2013-07-01 00:59:00,71.8,53.2,29.99,West,270,7.2,11.4,52,0.00,,,0.00,WUHU216HW,2013-07-01 06:59:00,
2013-07-01 01:02:00,72.0,52.8,29.99,West,270,8.9,11.4,51,0.00,,,0.00,WUHU216HW,2013-07-01 07:02:00,
2013-07-01 01:03:00,72.0,52.8,29.99,West,270,9.2,11.4,51,0.00,,,0.00,WUHU216HW,2013-07-01 07:03:00,
2013-07-01 01:04:00,71.8,52.7,29.99,West,270,10.3,11.4,51,0.00,,,0.00,WUHU216HW,2013-07-01 07:04:00,
2013-07-01 01:08:00,71.6,53.0,29.99,WNW,293,8.3,10.3,52,0.00,,,0.00,WUHU216HW,2013-07-01 07:08:00,
2013-07-01 01:09:00,71.5,52.8,29.99,WNW,293,5.4,10.3,52,0.00,,,0.00,WUHU216HW,2013-07-01 07:09:00,
2013-07-01 01:13:00,71.1,52.6,29.99,West,270,7.6,10.3,52,0.00,,,0.00,WUHU216HW,2013-07-01 07:13:00,
2013-07-01 01:14:00,71.1,53.0,29.99,West,270,8.5,9.2,53,0.00,,,0.00,WUHU216HW,2013-07-01 07:14:00,
2013-07-01 01:18:00,70.9,52.9,29.99,West,270,10.7,10.7,53,0.00,,,0.00,WUHU216HW,2013-07-01 07:18:00,
2013-07-01 01:19:00,70.7,52.8,29.99,West,270,9.2,10.7,53,0.00,,,0.00,WUHU216HW,2013-07-01 07:19:00,
2013-07-01 01:20:00,70.7,52.8,29.99,West,270,9.2,10.7,53,0.00,,,0.00,WUHU216HW,2013-07-01 07:20:00,
2013-07-01 01:23:00,70.6,52.6,29.99,WSW,248,4.7,10.7,53,0.00,,,0.00,WUHU216HW,2013-07-01 07:23:00,
2013-07-01 01:24:00,70.6,52.6,29.99,West,270,9.4,10.7,53,0.00,,,0.00,WUHU216HW,2013-07-01 07:24:00,
2013-07-01 01:25:00,70.6,52.6,29.99,WNW,293,5.4,10.7,53,0.00,,,0.00,WUHU216HW,2013-07-01 07:25:00,
2013-07-01 01:28:00,70.6,52.6,29.99,NW,315,6.7,10.5,53,0.00,,,0.00,WUHU216HW,2013-07-01 07:28:00,
2013-07-01 01:29:00,70.6,52.6,29.99,NW,315,6.9,10.5,53,0.00,,,0.00,WUHU216HW,2013-07-01 07:29:00,
2013-07-01 01:30:00,70.6,52.6,29.99,NW,315,6.9,10.5,53,0.00,,,0.00,WUHU216HW,2013-07-01 07:30:00,
2013-07-01 01:33:00,70.4,52.9,29.99,WNW,293,6.3,9.4,54,0.00,,,0.00,WUHU216HW,2013-07-01 07:33:00,
2013-07-01 01:34:00,70.2,52.7,29.99,WNW,293,8.7,8.9,54,0.00,,,0.00,WUHU216HW,2013-07-01 07:34:00,
2013-07-01 01:35:00,70.2,52.7,30.00,WNW,293,6.7,8.9,54,0.00,,,0.00,WUHU216HW,2013-07-01 07:35:00,
2013-07-01 01:38:00,70.4,52.9,30.00,WNW,293,10.1,10.7,54,0.00,,,0.00,WUHU216HW,2013-07-01 07:38:00,
2013-07-01 01:39:00,70.4,52.9,30.00,WNW,293,9.8,10.7,54,0.00,,,0.00,WUHU216HW,2013-07-01 07:39:00,
2013-07-01 01:40:00,70.4,52.9,30.00,WNW,293,9.8,10.7,54,0.00,,,0.00,WUHU216HW,2013-07-01 07:40:00,
2013-07-01 01:43:00,70.6,52.6,30.00,WNW,293,8.1,10.7,53,0.00,,,0.00,WUHU216HW,2013-07-01 07:43:00,
2013-07-01 01:44:00,70.7,52.8,30.00,WNW,293,6.7,10.7,53,0.00,,,0.00,WUHU216HW,2013-07-01 07:44:00,
2013-07-01 01:45:00,70.7,52.8,30.00,WNW,293,6.3,10.7,53,0.00,,,0.00,WUHU216HW,2013-07-01 07:45:00,
2013-07-01 01:49:00,70.2,52.7,30.00,WNW,293,7.4,9.8,54,0.00,,,0.00,WUHU216HW,2013-07-01 07:49:00,
2013-07-01 01:50:00,70.2,53.3,30.00,WNW,293,8.3,9.8,55,0.00,,,0.00,WUHU216HW,2013-07-01 07:50:00,
2013-07-01 01:51:00,70.4,53.4,30.00,NW,315,6.9,9.2,55,0.00,,,0.00,WUHU216HW,2013-07-01 07:51:00,
2013-07-01 01:54:00,70.4,52.9,30.00,NW,315,7.8,8.5,54,0.00,,,0.00,WUHU216HW,2013-07-01 07:54:00,
2013-07-01 01:55:00,70.2,52.7,30.00,NW,315,7.2,8.5,54,0.00,,,0.00,WUHU216HW,2013-07-01 07:55:00,
2013-07-01 01:56:00,70.2,52.7,30.00,NW,315,6.5,8.5,54,0.00,,,0.00,WUHU216HW,2013-07-01 07:56:00,
2013-07-01 01:59:00,70.0,52.6,30.00,NW,315,7.2,8.3,54,0.00,,,0.00,WUHU216HW,2013-07-01 07:59:00,
2013-07-01 02:00:00,70.0,52.6,30.00,NW,315,7.2,7.8,54,0.00,,,0.00,WUHU216HW,2013-07-01 08:00:00,
2013-07-01 02:01:00,70.0,52.6,30.00,NW,315,7.6,7.8,54,0.00,,,0.00,WUHU216HW,2013-07-01 08:01:00,
2013-07-01 02:04:00,69.8,52.4,30.00,NW,315,6.9,7.8,54,0.00,,,0.00,WUHU216HW,2013-07-01 08:04:00,
2013-07-01 02:05:00,69.8,52.4,30.00,NW,315,6.9,7.8,54,0.00,,,0.00,WUHU216HW,2013-07-01 08:05:00,
2013-07-01 02:06:00,70.0,52.6,30.00,WNW,293,7.6,7.8,54,0.00,,,0.00,WUHU216HW,2013-07-01 08:06:00,
2013-07-01 02:09:00,70.2,53.3,30.00,West,270,5.6,8.1,55,0.00,,,0.00,WUHU216HW,2013-07-01 08:09:00,
2013-07-01 02:10:00,70.2,53.3,30.00,WNW,293,6.7,8.1,55,0.00,,,0.00,WUHU216HW,2013-07-01 08:10:00,
2013-07-01 02:11:00,70.2,53.3,30.00,WNW,293,8.5,8.5,55,0.00,,,0.00,WUHU216HW,2013-07-01 08:11:00,
2013-07-01 02:12:00,70.2,52.7,30.00,WNW,293,6.7,8.5,54,0.00,,,0.00,WUHU216HW,2013-07-01 08:12:00,
2013-07-01 02:14:00,70.4,53.4,30.00,WNW,293,7.6,8.5,55,0.00,,,0.00,WUHU216HW,2013-07-01 08:14:00,
2013-07-01 02:15:00,70.2,53.3,30.00,WNW,293,6.5,8.5,55,0.00,,,0.00,WUHU216HW,2013-07-01 08:15:00,
2013-07-01 02:17:00,70.2,53.3,30.00,NW,315,6.9,8.5,55,0.00,,,0.00,WUHU216HW,2013-07-01 08:17:00,
2013-07-01 02:19:00,70.2,53.3,30.00,WNW,293,5.4,8.5,55,0.00,,,0.00,WUHU216HW,2013-07-01 08:19:00,
2013-07-01 02:20:00,70.2,53.3,30.00,WNW,293,6.7,8.5,55,0.00,,,0.00,WUHU216HW,2013-07-01 08:20:00,
2013-07-01 02:22:00,70.2,53.3,30.00,West,270,7.2,8.3,55,0.00,,,0.00,WUHU216HW,2013-07-01 08:22:00,
2013-07-01 02:24:00,70.0,52.6,30.00,West,270,7.8,7.8,54,0.00,,,0.00,WUHU216HW,2013-07-01 08:24:00,
2013-07-01 02:26:00,69.8,52.9,30.00,West,270,6.3,7.8,55,0.00,,,0.00,WUHU216HW,2013-07-01 08:26:00,
2013-07-01 02:27:00,69.8,52.4,30.00,West,270,6.7,7.8,54,0.00,,,0.00,WUHU216HW,2013-07-01 08:27:00,
2013-07-01 02:28:00,69.7,52.3,30.00,West,270,7.6,7.8,54,0.00,,,0.00,WUHU216HW,2013-07-01 08:28:00,
2013-07-01 02:30:00,69.7,52.7,30.00,WNW,293,7.6,8.1,55,0.00,,,0.00,WUHU216HW,2013-07-01 08:30:00,
2013-07-01 02:31:00,69.7,52.7,30.00,West,270,6.9,8.1,55,0.00,,,0.00,WUHU216HW,2013-07-01 08:31:00,
2013-07-01 02:32:00,69.7,52.7,30.00,West,270,8.5,8.5,55,0.00,,,0.00,WUHU216HW,2013-07-01 08:32:00,
2013-07-01 02:33:00,69.5,52.6,30.00,WNW,293,8.3,8.5,55,0.00,,,0.00,WUHU216HW,2013-07-01 08:33:00,
2013-07-01 02:35:00,69.5,52.6,30.00,WNW,293,7.2,9.4,55,0.00,,,0.00,WUHU216HW,2013-07-01 08:35:00,
2013-07-01 02:36:00,69.7,52.7,30.00,WNW,293,8.3,9.4,55,0.00,,,0.00,WUHU216HW,2013-07-01 08:36:00,
2013-07-01 02:37:00,69.7,52.7,30.00,WNW,293,7.2,9.4,55,0.00,,,0.00,WUHU216HW,2013-07-01 08:37:00,
2013-07-01 02:38:00,69.7,52.7,30.00,WNW,293,8.3,9.4,55,0.00,,,0.00,WUHU216HW,2013-07-01 08:38:00,
2013-07-01 02:40:00,69.7,52.3,30.00,WNW,293,8.5,9.4,54,0.00,,,0.00,WUHU216HW,2013-07-01 08:40:00,
2013-07-01 02:41:00,69.7,52.7,30.00,NW,315,6.9,9.4,55,0.00,,,0.00,WUHU216HW,2013-07-01 08:41:00,
2013-07-01 02:42:00,69.5,52.6,30.00,NW,315,5.4,9.4,55,0.00,,,0.00,WUHU216HW,2013-07-01 08:42:00,
2013-07-01 02:43:00,69.5,52.6,30.00,WNW,293,6.7,9.4,55,0.00,,,0.00,WUHU216HW,2013-07-01 08:43:00,
2013-07-01 02:45:00,69.3,52.9,30.00,WNW,293,7.6,8.5,56,0.00,,,0.00,WUHU216HW,2013-07-01 08:45:00,
2013-07-01 02:47:00,69.5,53.1,30.00,NW,315,6.7,8.5,56,0.00,,,0.00,WUHU216HW,2013-07-01 08:47:00,
2013-07-01 02:48:00,69.5,52.6,30.00,NW,315,7.6,8.5,55,0.00,,,0.00,WUHU216HW,2013-07-01 08:48:00,
2013-07-01 02:50:00,69.1,52.8,30.00,WNW,293,6.9,7.8,56,0.00,,,0.00,WUHU216HW,2013-07-01 08:50:00,
2013-07-01 02:52:00,68.8,52.4,30.00,NW,315,7.6,7.8,56,0.00,,,0.00,WUHU216HW,2013-07-01 08:52:00,
2013-07-01 02:53:00,68.6,52.8,30.00,West,270,6.5,7.8,57,0.00,,,0.00,WUHU216HW,2013-07-01 08:53:00,
2013-07-01 02:54:00,68.6,52.2,30.00,WNW,293,6.9,7.8,56,0.00,,,0.00,WUHU216HW,2013-07-01 08:54:00,
2013-07-01 02:55:00,68.6,52.8,30.00,WNW,293,7.2,7.6,57,0.00,,,0.00,WUHU216HW,2013-07-01 08:55:00,
2013-07-01 02:57:00,68.8,52.4,30.00,WNW,293,5.6,7.6,56,0.00,,,0.00,WUHU216HW,2013-07-01 08:57:00,
2013-07-01 02:58:00,68.8,52.4,30.00,WNW,293,7.4,7.6,56,0.00,,,0.00,WUHU216HW,2013-07-01 08:58:00,
2013-07-01 02:59:00,68.8,52.4,30.00,West,270,6.5,7.6,56,0.00,,,0.00,WUHU216HW,2013-07-01 08:59:00,
2013-07-01 03:00:00,68.8,52.4,30.00,WNW,293,7.2,7.6,56,0.00,,,0.00,WUHU216HW,2013-07-01 09:00:00,
2013-07-01 03:02:00,68.8,52.9,30.00,WNW,293,6.0,7.6,57,0.00,,,0.00,WUHU216HW,2013-07-01 09:02:00,
2013-07-01 03:03:00,68.8,52.4,30.00,NW,315,7.2,7.6,56,0.00,,,0.00,WUHU216HW,2013-07-01 09:03:00,
2013-07-01 03:04:00,68.8,52.4,30.00,WNW,293,6.7,7.6,56,0.00,,,0.00,WUHU216HW,2013-07-01 09:04:00,
2013-07-01 03:06:00,68.8,52.4,30.00,NW,315,6.7,7.4,56,0.00,,,0.00,WUHU216HW,2013-07-01 09:06:00,
2013-07-01 03:07:00,68.8,52.4,30.00,NW,315,6.5,7.4,56,0.00,,,0.00,WUHU216HW,2013-07-01 09:07:00,
2013-07-01 03:08:00,68.8,52.4,30.00,WNW,293,6.7,7.4,56,0.00,,,0.00,WUHU216HW,2013-07-01 09:08:00,
2013-07-01 03:10:00,68.6,52.2,30.00,NW,315,7.6,8.5,56,0.00,,,0.00,WUHU216HW,2013-07-01 09:10:00,
2013-07-01 03:11:00,68.6,52.2,30.00,WNW,293,6.9,8.7,56,0.00,,,0.00,WUHU216HW,2013-07-01 09:11:00,
2013-07-01 03:12:00,68.6,52.8,30.00,NW,315,6.0,8.7,57,0.00,,,0.00,WUHU216HW,2013-07-01 09:12:00,
2013-07-01 03:13:00,68.6,52.8,30.00,NW,315,6.7,8.7,57,0.00,,,0.00,WUHU216HW,2013-07-01 09:13:00,
2013-07-01 03:15:00,68.8,52.9,30.00,NW,315,7.4,8.7,57,0.00,,,0.00,WUHU216HW,2013-07-01 09:15:00,
2013-07-01 03:16:00,68.8,52.9,30.00,NW,315,8.3,8.7,57,0.00,,,0.00,WUHU216HW,2013-07-01 09:16:00,
2013-07-01 03:17:00,68.8,52.4,30.00,WNW,293,7.4,9.8,56,0.00,,,0.00,WUHU216HW,2013-07-01 09:17:00,
2013-07-01 03:18:00,68.8,52.4,30.00,WNW,293,6.5,9.8,56,0.00,,,0.00,WUHU216HW,2013-07-01 09:18:00,
2013-07-01 03:20:00,69.1,52.2,30.00,WNW,293,6.9,9.8,55,0.00,,,0.00,WUHU216HW,2013-07-01 09:20:00,
2013-07-01 03:21:00,69.1,52.2,30.00,WNW,293,6.9,9.8,55,0.00,,,0.00,WUHU216HW,2013-07-01 09:21:00,
2013-07-01 03:23:00,68.9,52.0,30.00,WNW,293,6.7,9.8,55,0.00,,,0.00,WUHU216HW,2013-07-01 09:23:00,
2013-07-01 03:25:00,68.9,52.6,30.00,WNW,293,6.7,9.8,56,0.00,,,0.00,WUHU216HW,2013-07-01 09:25:00,
2013-07-01 03:26:00,68.9,52.6,30.00,WNW,293,8.3,9.8,56,0.00,,,0.00,WUHU216HW,2013-07-01 09:26:00,
2013-07-01 03:28:00,69.1,52.2,30.00,NW,315,5.4,9.6,55,0.00,,,0.00,WUHU216HW,2013-07-01 09:28:00,
2013-07-01 03:31:00,68.9,52.6,30.00,WNW,293,6.5,9.6,56,0.00,,,0.00,WUHU216HW,2013-07-01 09:31:00,
2013-07-01 03:33:00,68.9,53.0,30.00,NW,315,5.4,8.9,57,0.00,,,0.00,WUHU216HW,2013-07-01 09:33:00,
2013-07-01 03:36:00,68.8,52.9,30.00,NW,315,5.4,7.6,57,0.00,,,0.00,WUHU216HW,2013-07-01 09:36:00,
2013-07-01 03:38:00,68.8,52.9,30.00,NW,315,6.3,7.2,57,0.00,,,0.00,WUHU216HW,2013-07-01 09:38:00,
2013-07-01 03:39:00,68.6,52.8,30.00,NW,315,6.7,7.2,57,0.00,,,0.00,WUHU216HW,2013-07-01 09:39:00,
2013-07-01 03:41:00,68.4,52.6,30.01,NW,315,6.9,7.2,57,0.00,,,0.00,WUHU216HW,2013-07-01 09:41:00,
2013-07-01 03:42:00,68.4,52.6,30.01,NW,315,6.0,7.2,57,0.00,,,0.00,WUHU216HW,2013-07-01 09:42:00,
2013-07-01 03:43:00,68.4,52.6,30.01,NW,315,6.3,7.2,57,0.00,,,0.00,WUHU216HW,2013-07-01 09:43:00,
2013-07-01 03:44:00,68.2,52.4,30.01,NW,315,6.3,7.2,57,0.00,,,0.00,WUHU216HW,2013-07-01 09:44:00,
2013-07-01 03:47:00,68.0,52.7,30.00,NW,315,6.5,7.6,58,0.00,,,0.00,WUHU216HW,2013-07-01 09:47:00,
2013-07-01 03:49:00,68.0,52.7,30.01,NW,315,6.0,7.6,58,0.00,,,0.00,WUHU216HW,2013-07-01 09:49:00,
2013-07-01 03:52:00,67.9,53.0,30.01,WNW,293,5.4,7.6,59,0.00,,,0.00,WUHU216HW,2013-07-01 09:52:00,
2013-07-01 03:54:00,67.7,53.3,30.01,WNW,293,6.9,7.6,60,0.00,,,0.00,WUHU216HW,2013-07-01 09:54:00,
2013-07-01 03:57:00,67.7,53.7,30.01,WNW,293,6.7,7.2,61,0.00,,,0.00,WUHU216HW,2013-07-01 09:57:00,
2013-07-01 03:59:00,67.9,53.5,30.01,WNW,293,6.3,7.2,60,0.00,,,0.00,WUHU216HW,2013-07-01 09:59:00,
2013-07-01 04:02:00,68.0,53.2,30.01,WNW,293,5.6,7.4,59,0.00,,,0.00,WUHU216HW,2013-07-01 10:02:00,
2013-07-01 04:03:00,68.0,52.7,30.01,West,270,7.4,7.4,58,0.00,,,0.00,WUHU216HW,2013-07-01 10:03:00,
2013-07-01 04:04:00,68.0,53.2,30.01,West,270,7.6,7.8,59,0.00,,,0.00,WUHU216HW,2013-07-01 10:04:00,
2013-07-01 04:07:00,68.0,53.6,30.01,WNW,293,6.7,7.8,60,0.00,,,0.00,WUHU216HW,2013-07-01 10:07:00,
2013-07-01 04:08:00,68.0,53.6,30.01,WNW,293,6.3,7.8,60,0.00,,,0.00,WUHU216HW,2013-07-01 10:08:00,
2013-07-01 04:09:00,68.0,54.1,30.01,WNW,293,7.2,7.8,61,0.00,,,0.00,WUHU216HW,2013-07-01 10:09:00,
2013-07-01 04:12:00,67.9,53.9,30.01,WNW,293,6.5,7.8,61,0.00,,,0.00,WUHU216HW,2013-07-01 10:12:00,
2013-07-01 04:13:00,67.9,53.9,30.01,WNW,293,6.5,7.8,61,0.00,,,0.00,WUHU216HW,2013-07-01 10:13:00,
2013-07-01 04:14:00,67.7,54.2,30.01,WNW,293,6.3,7.8,62,0.00,,,0.00,WUHU216HW,2013-07-01 10:14:00,
2013-07-01 04:18:00,67.5,54.5,30.01,West,270,6.9,7.8,63,0.00,,,0.00,WUHU216HW,2013-07-01 10:18:00,
2013-07-01 04:19:00,67.5,54.5,30.01,WNW,293,6.7,8.1,63,0.00,,,0.00,WUHU216HW,2013-07-01 10:19:00,
2013-07-01 04:20:00,67.5,54.5,30.01,WNW,293,6.7,8.1,63,0.00,,,0.00,WUHU216HW,2013-07-01 10:20:00,
2013-07-01 04:23:00,67.5,54.0,30.01,WNW,293,6.9,8.1,62,0.00,,,0.00,WUHU216HW,2013-07-01 10:23:00,
2013-07-01 04:24:00,67.5,54.0,30.02,West,270,7.2,8.1,62,0.00,,,0.00,WUHU216HW,2013-07-01 10:24:00,
2013-07-01 04:25:00,67.5,54.0,30.02,WNW,293,6.3,8.1,62,0.00,,,0.00,WUHU216HW,2013-07-01 10:25:00,
2013-07-01 04:28:00,67.3,54.3,30.02,West,270,7.6,8.1,63,0.00,,,0.00,WUHU216HW,2013-07-01 10:28:00,
2013-07-01 04:30:00,67.3,54.3,30.01,WNW,293,6.3,8.1,63,0.00,,,0.00,WUHU216HW,2013-07-01 10:30:00,
2013-07-01 04:33:00,67.3,54.7,30.01,WNW,293,7.4,8.1,64,0.00,,,0.00,WUHU216HW,2013-07-01 10:33:00,
2013-07-01 04:34:00,67.3,54.7,30.02,NW,315,7.4,8.1,64,0.00,,,0.00,WUHU216HW,2013-07-01 10:34:00,
2013-07-01 04:35:00,67.3,54.7,30.01,WNW,293,5.8,8.1,64,0.00,,,0.00,WUHU216HW,2013-07-01 10:35:00,
2013-07-01 04:38:00,67.1,54.6,30.02,NW,315,7.6,8.5,64,0.00,,,0.00,WUHU216HW,2013-07-01 10:38:00,
2013-07-01 04:39:00,67.1,54.6,30.02,NW,315,5.8,8.5,64,0.00,,,0.00,WUHU216HW,2013-07-01 10:39:00,
2013-07-01 04:40:00,67.1,54.6,30.02,NW,315,5.6,8.5,64,0.00,,,0.00,WUHU216HW,2013-07-01 10:40:00,
2013-07-01 04:44:00,66.8,54.2,30.02,WNW,293,5.6,8.5,64,0.00,,,0.00,WUHU216HW,2013-07-01 10:44:00,
2013-07-01 04:45:00,66.8,54.2,30.02,WNW,293,5.1,8.5,64,0.00,,,0.00,WUHU216HW,2013-07-01 10:45:00,
2013-07-01 04:49:00,66.2,54.1,30.02,WNW,293,5.6,6.7,65,0.00,,,0.00,WUHU216HW,2013-07-01 10:49:00,
2013-07-01 04:50:00,65.9,53.7,30.02,NW,315,5.8,6.7,65,0.00,,,0.00,WUHU216HW,2013-07-01 10:50:00,
2013-07-01 04:54:00,65.3,53.6,30.02,NW,315,5.8,6.7,66,0.00,,,0.00,WUHU216HW,2013-07-01 10:54:00,
2013-07-01 04:55:00,65.3,54.1,30.02,WNW,293,5.4,6.7,67,0.00,,,0.00,WUHU216HW,2013-07-01 10:55:00,
2013-07-01 04:59:00,65.2,53.9,30.02,NW,315,5.4,6.7,67,0.00,,,0.00,WUHU216HW,2013-07-01 10:59:00,
2013-07-01 05:01:00,65.2,54.4,30.02,NW,315,5.4,6.9,68,0.00,,,0.00,WUHU216HW,2013-07-01 11:01:00,
2013-07-01 05:04:00,65.2,54.4,30.02,WNW,293,5.4,6.9,68,0.00,,,0.00,WUHU216HW,2013-07-01 11:04:00,
2013-07-01 05:05:00,65.2,54.4,30.02,NW,315,5.1,6.9,68,0.00,,,0.00,WUHU216HW,2013-07-01 11:05:00,
2013-07-01 05:06:00,65.3,54.6,30.03,WNW,293,5.1,6.9,68,0.00,,,0.00,WUHU216HW,2013-07-01 11:06:00,
2013-07-01 05:09:00,65.2,54.4,30.03,WNW,293,4.7,6.9,68,0.00,,,0.00,WUHU216HW,2013-07-01 11:09:00,
2013-07-01 05:10:00,65.2,54.4,30.03,NW,315,5.4,6.9,68,0.00,,,0.00,WUHU216HW,2013-07-01 11:10:00,
2013-07-01 05:11:00,65.0,54.6,30.03,NNW,338,6.7,6.7,69,0.00,,,0.00,WUHU216HW,2013-07-01 11:11:00,
2013-07-01 05:14:00,65.2,54.7,30.03,WNW,293,5.8,7.4,69,0.00,,,0.00,WUHU216HW,2013-07-01 11:14:00,
2013-07-01 05:15:00,65.2,54.7,30.03,NW,315,6.3,7.4,69,0.00,,,0.00,WUHU216HW,2013-07-01 11:15:00,
2013-07-01 05:16:00,65.2,54.7,30.03,WNW,293,5.4,7.4,69,0.00,,,0.00,WUHU216HW,2013-07-01 11:16:00,
2013-07-01 05:20:00,65.2,54.4,30.03,West,270,5.8,7.4,68,0.00,,,0.00,WUHU216HW,2013-07-01 11:20:00,
2013-07-01 05:21:00,65.2,54.4,30.03,West,270,6.3,7.4,68,0.00,,,0.00,WUHU216HW,2013-07-01 11:21:00,
2013-07-01 05:22:00,65.2,54.4,30.03,West,270,6.3,7.4,68,0.00,,,0.00,WUHU216HW,2013-07-01 11:22:00,
2013-07-01 05:25:00,65.0,54.2,30.03,West,270,5.6,6.9,68,0.00,,,0.00,WUHU216HW,2013-07-01 11:25:00,
2013-07-01 05:26:00,65.0,54.2,30.03,WNW,293,4.9,6.9,68,0.00,,,0.00,WUHU216HW,2013-07-01 11:26:00,
2013-07-01 05:27:00,65.0,54.6,30.03,WNW,293,5.8,6.9,69,0.00,,,0.00,WUHU216HW,2013-07-01 11:27:00,
2013-07-01 05:30:00,65.2,54.7,30.03,WNW,293,6.0,6.3,69,0.00,,,0.00,WUHU216HW,2013-07-01 11:30:00,
2013-07-01 05:31:00,65.2,54.7,30.03,NW,315,5.8,6.3,69,0.00,,,0.00,WUHU216HW,2013-07-01 11:31:00,
2013-07-01 05:32:00,65.2,54.7,30.03,WNW,293,4.7,6.3,69,0.00,,,0.00,WUHU216HW,2013-07-01 11:32:00,
2013-07-01 05:35:00,65.2,54.4,30.03,West,270,4.9,6.3,68,0.00,,,0.00,WUHU216HW,2013-07-01 11:35:00,
2013-07-01 05:36:00,65.2,54.4,30.03,West,270,5.4,6.3,68,0.00,,,0.00,WUHU216HW,2013-07-01 11:36:00,
2013-07-01 05:37:00,65.0,53.7,30.03,West,270,5.8,6.3,67,0.00,,,0.00,WUHU216HW,2013-07-01 11:37:00,
2013-07-01 05:40:00,64.6,54.3,30.03,WNW,293,4.9,6.0,69,0.00,,,0.00,WUHU216HW,2013-07-01 11:40:00,
2013-07-01 05:41:00,64.6,54.3,30.03,WNW,293,4.5,5.8,69,0.00,,,0.00,WUHU216HW,2013-07-01 11:41:00,
2013-07-01 05:42:00,64.6,54.3,30.03,WNW,293,4.5,5.8,69,0.00,,,0.00,WUHU216HW,2013-07-01 11:42:00,
2013-07-01 05:45:00,64.6,54.7,30.03,WNW,293,4.9,5.8,70,0.00,,,0.00,WUHU216HW,2013-07-01 11:45:00,
2013-07-01 05:46:00,64.4,54.1,30.03,WNW,293,4.9,5.8,69,0.00,,,0.00,WUHU216HW,2013-07-01 11:46:00,
2013-07-01 05:47:00,64.4,54.5,30.03,West,270,4.9,5.8,70,0.00,,,0.00,WUHU216HW,2013-07-01 11:47:00,
2013-07-01 05:50:00,64.4,54.1,30.03,West,270,5.4,6.0,69,0.00,,,0.00,WUHU216HW,2013-07-01 11:50:00,
2013-07-01 05:51:00,64.4,54.1,30.03,West,270,5.4,6.0,69,0.00,,,0.00,WUHU216HW,2013-07-01 11:51:00,
2013-07-01 05:52:00,64.3,53.9,30.03,WNW,293,5.1,6.0,69,0.00,,,0.00,WUHU216HW,2013-07-01 11:52:00,
2013-07-01 05:53:00,64.3,53.9,30.03,West,270,5.4,6.3,69,0.00,,,0.00,WUHU216HW,2013-07-01 11:53:00,
2013-07-01 05:55:00,64.3,54.4,30.03,West,270,5.4,6.3,70,0.00,,,0.00,WUHU216HW,2013-07-01 11:55:00,
2013-07-01 05:56:00,64.3,54.4,30.03,WNW,293,6.0,6.3,70,0.00,,,0.00,WUHU216HW,2013-07-01 11:56:00,
2013-07-01 05:57:00,64.4,54.5,30.03,West,270,6.0,6.3,70,0.00,,,0.00,WUHU216HW,2013-07-01 11:57:00,
2013-07-01 05:58:00,64.4,54.5,30.03,West,270,5.4,6.3,70,0.00,,,0.00,WUHU216HW,2013-07-01 11:58:00,
2013-07-01 06:01:00,64.6,54.3,30.03,West,270,6.7,6.7,69,0.00,,,0.00,WUHU216HW,2013-07-01 12:01:00,
2013-07-01 06:02:00,64.8,54.0,30.03,West,270,6.5,6.7,68,0.00,,,0.00,WUHU216HW,2013-07-01 12:02:00,
2013-07-01 06:03:00,64.8,54.0,30.03,West,270,6.3,6.7,68,0.00,,,0.00,WUHU216HW,2013-07-01 12:03:00,
2013-07-01 06:06:00,64.8,54.5,30.03,West,270,5.4,6.7,69,0.00,,,0.00,WUHU216HW,2013-07-01 12:06:00,
2013-07-01 06:07:00,64.8,54.5,30.04,West,270,4.5,6.7,69,0.00,,,0.00,WUHU216HW,2013-07-01 12:07:00,
2013-07-01 06:08:00,65.0,55.0,30.03,WNW,293,5.4,6.7,70,0.00,,,0.00,WUHU216HW,2013-07-01 12:08:00,
2013-07-01 06:11:00,65.3,55.4,30.03,WNW,293,5.8,6.7,70,0.00,,,0.00,WUHU216HW,2013-07-01 12:11:00,
2013-07-01 06:12:00,65.3,55.4,30.03,WNW,293,6.3,6.7,70,0.00,,,0.00,WUHU216HW,2013-07-01 12:12:00,
2013-07-01 06:13:00,65.5,55.5,30.04,WNW,293,5.4,6.3,70,0.00,,,0.00,WUHU216HW,2013-07-01 12:13:00,
2013-07-01 06:16:00,65.5,55.5,30.04,WNW,293,6.0,6.3,70,0.00,,,0.00,WUHU216HW,2013-07-01 12:16:00,
2013-07-01 06:17:00,65.5,55.5,30.04,WNW,293,5.1,6.3,70,0.00,,,0.00,WUHU216HW,2013-07-01 12:17:00,
2013-07-01 06:18:00,65.5,55.5,30.03,WNW,293,5.8,6.3,70,0.00,,,0.00,WUHU216HW,2013-07-01 12:18:00,
2013-07-01 06:19:00,65.7,55.7,30.03,NW,315,7.2,7.2,70,0.00,,,0.00,WUHU216HW,2013-07-01 12:19:00,
2013-07-01 06:22:00,65.9,55.8,30.04,NW,315,7.6,8.7,70,0.00,,,0.00,WUHU216HW,2013-07-01 12:22:00,
2013-07-01 06:24:00,65.9,55.8,30.04,WNW,293,6.9,9.2,70,0.00,,,0.00,WUHU216HW,2013-07-01 12:24:00,
2013-07-01 06:27:00,66.1,55.6,30.03,NW,315,6.9,9.2,69,0.00,,,0.00,WUHU216HW,2013-07-01 12:27:00,
2013-07-01 06:28:00,66.1,55.6,30.03,NW,315,8.5,9.2,69,0.00,,,0.00,WUHU216HW,2013-07-01 12:28:00,
2013-07-01 06:29:00,66.1,55.6,30.04,NW,315,6.9,9.2,69,0.00,,,0.00,WUHU216HW,2013-07-01 12:29:00,
2013-07-01 06:32:00,66.2,55.7,30.04,NW,315,7.2,9.2,69,0.00,,,0.00,WUHU216HW,2013-07-01 12:32:00,
2013-07-01 06:33:00,66.2,55.7,30.04,NW,315,6.3,8.5,69,0.00,,,0.00,WUHU216HW,2013-07-01 12:33:00,
2013-07-01 06:34:00,66.2,55.7,30.04,NW,315,6.9,8.5,69,0.00,,,0.00,WUHU216HW,2013-07-01 12:34:00,
2013-07-01 06:37:00,66.4,55.9,30.03,NNW,338,5.6,8.5,69,0.00,,,0.00,WUHU216HW,2013-07-01 12:37:00,
2013-07-01 06:38:00,66.4,55.9,30.03,NNW,338,5.6,8.1,69,0.00,,,0.00,WUHU216HW,2013-07-01 12:38:00,
2013-07-01 06:39:00,66.4,55.5,30.03,NW,315,5.4,8.1,68,0.00,,,0.00,WUHU216HW,2013-07-01 12:39:00,
2013-07-01 06:40:00,66.6,56.1,30.03,NNW,338,6.3,7.4,69,0.00,,,0.00,WUHU216HW,2013-07-01 12:40:00,
2013-07-01 06:42:00,66.6,55.7,30.03,NW,315,8.7,8.7,68,0.00,,,0.00,WUHU216HW,2013-07-01 12:42:00,
2013-07-01 06:43:00,66.6,55.7,30.03,NW,315,9.2,9.2,68,0.00,,,0.00,WUHU216HW,2013-07-01 12:43:00,
2013-07-01 06:44:00,66.6,55.7,30.03,NW,315,6.7,9.2,68,0.00,,,0.00,WUHU216HW,2013-07-01 12:44:00,
2013-07-01 06:45:00,66.8,55.9,30.03,NW,315,6.9,9.2,68,0.00,,,0.00,WUHU216HW,2013-07-01 12:45:00,
2013-07-01 06:47:00,67.0,56.1,30.03,NW,315,7.4,9.2,68,0.00,,,0.00,WUHU216HW,2013-07-01 12:47:00,
2013-07-01 06:48:00,67.0,56.1,30.03,NW,315,7.6,9.2,68,0.00,,,0.00,WUHU216HW,2013-07-01 12:48:00,
2013-07-01 06:49:00,67.0,56.1,30.03,NNW,338,8.9,9.8,68,0.00,,,0.00,WUHU216HW,2013-07-01 12:49:00,
2013-07-01 06:50:00,67.1,56.3,30.03,NW,315,8.3,9.8,68,0.00,,,0.00,WUHU216HW,2013-07-01 12:50:00,
2013-07-01 06:52:00,67.1,56.3,30.03,NW,315,7.2,9.8,68,0.00,,,0.00,WUHU216HW,2013-07-01 12:52:00,
2013-07-01 06:53:00,67.1,56.3,30.03,NW,315,7.2,9.8,68,0.00,,,0.00,WUHU216HW,2013-07-01 12:53:00,
2013-07-01 06:54:00,67.3,56.4,30.03,NW,315,7.6,9.8,68,0.00,,,0.00,WUHU216HW,2013-07-01 12:54:00,
2013-07-01 06:56:00,67.3,56.4,30.03,WNW,293,8.1,9.8,68,0.00,,,0.00,WUHU216HW,2013-07-01 12:56:00,
2013-07-01 06:58:00,67.5,56.6,30.03,NNW,338,7.2,9.8,68,0.00,,,0.00,WUHU216HW,2013-07-01 12:58:00,
2013-07-01 07:00:00,67.5,56.2,30.03,NW,315,8.7,8.9,67,0.00,,,0.00,WUHU216HW,2013-07-01 13:00:00,
2013-07-01 07:01:00,67.7,56.4,30.03,NW,315,6.9,8.9,67,0.00,,,0.00,WUHU216HW,2013-07-01 13:01:00,
2013-07-01 07:03:00,67.7,56.4,30.03,NW,315,7.4,8.9,67,0.00,,,0.00,WUHU216HW,2013-07-01 13:03:00,
2013-07-01 07:04:00,67.9,56.5,30.03,NW,315,8.1,8.9,67,0.00,,,0.00,WUHU216HW,2013-07-01 13:04:00,
2013-07-01 07:05:00,67.9,56.5,30.04,NNW,338,8.3,8.9,67,0.00,,,0.00,WUHU216HW,2013-07-01 13:05:00,
2013-07-01 07:06:00,67.9,56.5,30.03,NW,315,6.5,8.7,67,0.00,,,0.00,WUHU216HW,2013-07-01 13:06:00,
2013-07-01 07:08:00,68.0,56.7,30.04,NNW,338,5.6,8.7,67,0.00,,,0.00,WUHU216HW,2013-07-01 13:08:00,
2013-07-01 07:09:00,68.0,56.7,30.04,NNW,338,7.8,8.7,67,0.00,,,0.00,WUHU216HW,2013-07-01 13:09:00,
2013-07-01 07:10:00,68.2,56.8,30.04,NW,315,6.3,8.7,67,0.00,,,0.00,WUHU216HW,2013-07-01 13:10:00,
2013-07-01 07:11:00,68.4,57.0,30.04,NW,315,4.7,8.5,67,0.00,,,0.00,WUHU216HW,2013-07-01 13:11:00,
2013-07-01 07:13:00,68.4,56.6,30.04,NNW,338,7.2,8.5,66,0.00,,,0.00,WUHU216HW,2013-07-01 13:13:00,
2013-07-01 07:14:00,68.4,56.6,30.04,NNW,338,7.6,8.5,66,0.00,,,0.00,WUHU216HW,2013-07-01 13:14:00,
2013-07-01 07:15:00,68.4,56.6,30.04,NW,315,8.9,8.9,66,0.00,,,0.00,WUHU216HW,2013-07-01 13:15:00,
2013-07-01 07:17:00,68.6,56.7,30.04,NNW,338,6.0,8.9,66,0.00,,,0.00,WUHU216HW,2013-07-01 13:17:00,
2013-07-01 07:18:00,68.8,56.9,30.04,North,0,5.4,8.9,66,0.00,,,0.00,WUHU216HW,2013-07-01 13:18:00,
2013-07-01 07:19:00,68.8,56.5,30.04,NNW,338,7.6,8.9,65,0.00,,,0.00,WUHU216HW,2013-07-01 13:19:00,
2013-07-01 07:20:00,68.8,56.5,30.04,NW,315,7.4,8.9,65,0.00,,,0.00,WUHU216HW,2013-07-01 13:20:00,
2013-07-01 07:22:00,68.8,56.5,30.04,NNW,338,7.8,8.9,65,0.00,,,0.00,WUHU216HW,2013-07-01 13:22:00,
2013-07-01 07:24:00,68.8,56.5,30.04,NNW,338,8.1,11.0,65,0.00,,,0.00,WUHU216HW,2013-07-01 13:24:00,
2013-07-01 07:25:00,68.8,56.5,30.04,NW,315,8.3,11.0,65,0.00,,,0.00,WUHU216HW,2013-07-01 13:25:00,
2013-07-01 07:27:00,68.8,56.5,30.04,NW,315,9.2,11.0,65,0.00,,,0.00,WUHU216HW,2013-07-01 13:27:00,
2013-07-01 07:29:00,68.8,56.5,30.04,NW,315,10.7,11.0,65,0.00,,,0.00,WUHU216HW,2013-07-01 13:29:00,
2013-07-01 07:30:00,68.8,56.5,30.04,NW,315,6.7,11.0,65,0.00,,,0.00,WUHU216HW,2013-07-01 13:30:00,
2013-07-01 07:32:00,68.8,56.9,30.04,NW,315,6.7,11.0,66,0.00,,,0.00,WUHU216HW,2013-07-01 13:32:00,
2013-07-01 07:34:00,68.8,56.9,30.04,NW,315,6.7,10.7,66,0.00,,,0.00,WUHU216HW,2013-07-01 13:34:00,
2013-07-01 07:35:00,68.8,56.9,30.04,NNW,338,9.8,10.7,66,0.00,,,0.00,WUHU216HW,2013-07-01 13:35:00,
2013-07-01 07:36:00,68.8,56.9,30.04,NW,315,9.2,10.7,66,0.00,,,0.00,WUHU216HW,2013-07-01 13:36:00,
2013-07-01 07:37:00,68.8,56.9,30.04,NW,315,6.3,10.7,66,0.00,,,0.00,WUHU216HW,2013-07-01 13:37:00,
2013-07-01 07:39:00,68.9,57.1,30.04,NW,315,9.8,10.3,66,0.00,,,0.00,WUHU216HW,2013-07-01 13:39:00,
2013-07-01 07:40:00,68.9,56.7,30.04,NNW,338,10.5,10.5,65,0.00,,,0.00,WUHU216HW,2013-07-01 13:40:00,
2013-07-01 07:41:00,68.9,57.1,30.04,NNW,338,8.7,10.5,66,0.00,,,0.00,WUHU216HW,2013-07-01 13:41:00,
2013-07-01 07:43:00,68.9,57.1,30.04,NW,315,7.8,10.5,66,0.00,,,0.00,WUHU216HW,2013-07-01 13:43:00,
2013-07-01 07:44:00,69.1,57.2,30.04,NW,315,8.7,10.5,66,0.00,,,0.00,WUHU216HW,2013-07-01 13:44:00,
2013-07-01 07:45:00,69.1,57.2,30.04,NNW,338,4.9,10.5,66,0.00,,,0.00,WUHU216HW,2013-07-01 13:45:00,
2013-07-01 07:46:00,69.3,57.4,30.04,NNW,338,9.2,10.5,66,0.00,,,0.00,WUHU216HW,2013-07-01 13:46:00,
2013-07-01 07:48:00,69.3,57.4,30.04,NW,315,9.2,10.5,66,0.00,,,0.00,WUHU216HW,2013-07-01 13:48:00,
2013-07-01 07:50:00,69.3,57.0,30.04,NNW,338,10.5,12.1,65,0.00,,,0.00,WUHU216HW,2013-07-01 13:50:00,
2013-07-01 07:51:00,69.3,57.4,30.04,NNW,338,7.4,12.1,66,0.00,,,0.00,WUHU216HW,2013-07-01 13:51:00,
2013-07-01 07:53:00,69.5,57.6,30.04,NNW,338,7.6,12.1,66,0.00,,,0.00,WUHU216HW,2013-07-01 13:53:00,
2013-07-01 07:55:00,69.5,57.6,30.04,NNW,338,12.8,12.8,66,0.00,,,0.00,WUHU216HW,2013-07-01 13:55:00,
2013-07-01 07:56:00,69.5,57.6,30.04,NW,315,9.2,12.8,66,0.00,,,0.00,WUHU216HW,2013-07-01 13:56:00,
2013-07-01 07:58:00,69.5,57.2,30.04,NNW,338,10.5,12.8,65,0.00,,,0.00,WUHU216HW,2013-07-01 13:58:00,
2013-07-01 08:00:00,69.5,57.2,30.04,NW,315,8.7,12.8,65,0.00,,,0.00,WUHU216HW,2013-07-01 14:00:00,
2013-07-01 08:01:00,69.5,57.6,30.04,NNW,338,7.6,12.8,66,0.00,,,0.00,WUHU216HW,2013-07-01 14:01:00,
2013-07-01 08:04:00,69.7,57.3,30.04,NNW,338,7.2,12.8,65,0.00,,,0.00,WUHU216HW,2013-07-01 14:04:00,
2013-07-01 08:05:00,69.7,57.3,30.04,NNW,338,7.4,12.1,65,0.00,,,0.00,WUHU216HW,2013-07-01 14:05:00,
2013-07-01 08:06:00,69.8,58.0,30.04,NNW,338,8.9,12.1,66,0.00,,,0.00,WUHU216HW,2013-07-01 14:06:00,
2013-07-01 08:09:00,69.7,57.3,30.04,NNW,338,12.1,12.5,65,0.00,,,0.00,WUHU216HW,2013-07-01 14:09:00,
2013-07-01 08:10:00,69.7,57.3,30.04,NNW,338,11.6,12.5,65,0.00,,,0.00,WUHU216HW,2013-07-01 14:10:00,
2013-07-01 08:11:00,69.7,57.3,30.04,NNW,338,11.6,12.5,65,0.00,,,0.00,WUHU216HW,2013-07-01 14:11:00,
2013-07-01 08:12:00,69.7,57.3,30.04,NW,315,9.6,12.5,65,0.00,,,0.00,WUHU216HW,2013-07-01 14:12:00,
2013-07-01 08:14:00,69.7,57.3,30.04,NNW,338,12.1,12.5,65,0.00,,,0.00,WUHU216HW,2013-07-01 14:14:00,
2013-07-01 08:16:00,69.7,57.3,30.05,NNW,338,12.5,13.6,65,0.00,,,0.00,WUHU216HW,2013-07-01 14:16:00,
2013-07-01 08:17:00,69.8,58.0,30.04,NNW,338,9.8,13.6,66,0.00,,,0.00,WUHU216HW,2013-07-01 14:17:00,
2013-07-01 08:19:00,70.2,57.9,30.04,NNW,338,9.2,13.6,65,0.00,,,0.00,WUHU216HW,2013-07-01 14:19:00,
2013-07-01 08:21:00,70.2,57.9,30.04,NNW,338,11.0,13.6,65,0.00,,,0.00,WUHU216HW,2013-07-01 14:21:00,
2013-07-01 08:22:00,70.2,57.9,30.04,NNW,338,9.2,13.6,65,0.00,,,0.00,WUHU216HW,2013-07-01 14:22:00,
2013-07-01 08:25:00,70.4,58.1,30.04,NNW,338,8.9,13.6,65,0.00,,,0.00,WUHU216HW,2013-07-01 14:25:00,
2013-07-01 08:26:00,70.4,58.1,30.04,NW,315,8.7,12.8,65,0.00,,,0.00,WUHU216HW,2013-07-01 14:26:00,
2013-07-01 08:27:00,70.4,58.1,30.05,NW,315,12.5,12.8,65,0.00,,,0.00,WUHU216HW,2013-07-01 14:27:00,
2013-07-01 08:28:00,70.6,58.2,30.05,NNW,338,8.7,12.8,65,0.00,,,0.00,WUHU216HW,2013-07-01 14:28:00,
2013-07-01 08:30:00,70.6,58.2,30.05,NNW,338,10.5,12.8,65,0.00,,,0.00,WUHU216HW,2013-07-01 14:30:00,
2013-07-01 08:31:00,70.7,58.3,30.05,NNW,338,9.8,12.8,65,0.00,,,0.00,WUHU216HW,2013-07-01 14:31:00,
2013-07-01 08:32:00,70.7,58.3,30.05,North,0,9.2,12.8,65,0.00,,,0.00,WUHU216HW,2013-07-01 14:32:00,
2013-07-01 08:33:00,70.7,58.3,30.05,NNW,338,8.3,12.8,65,0.00,,,0.00,WUHU216HW,2013-07-01 14:33:00,
2013-07-01 08:35:00,70.9,58.5,30.05,NNW,338,10.1,12.8,65,0.00,,,0.00,WUHU216HW,2013-07-01 14:35:00,
2013-07-01 08:36:00,70.9,58.5,30.05,NNW,338,9.8,12.8,65,0.00,,,0.00,WUHU216HW,2013-07-01 14:36:00,
2013-07-01 08:37:00,70.9,58.5,30.05,NNW,338,8.5,12.8,65,0.00,,,0.00,WUHU216HW,2013-07-01 14:37:00,
2013-07-01 08:38:00,70.9,58.5,30.05,NW,315,11.0,12.5,65,0.00,,,0.00,WUHU216HW,2013-07-01 14:38:00,
2013-07-01 08:41:00,70.9,58.5,30.05,NW,315,5.8,12.1,65,0.00,,,0.00,WUHU216HW,2013-07-01 14:41:00,
2013-07-01 08:42:00,71.1,58.7,30.05,North,0,8.3,11.4,65,0.00,,,0.00,WUHU216HW,2013-07-01 14:42:00,
2013-07-01 08:43:00,71.3,58.9,30.05,NW,315,7.4,11.4,65,0.00,,,0.00,WUHU216HW,2013-07-01 14:43:00,
2013-07-01 08:46:00,71.6,59.2,30.05,NNW,338,7.6,11.4,65,0.00,,,0.00,WUHU216HW,2013-07-01 14:46:00,
2013-07-01 08:47:00,71.6,59.2,30.05,North,0,8.3,11.4,65,0.00,,,0.00,WUHU216HW,2013-07-01 14:47:00,
2013-07-01 08:48:00,71.6,58.8,30.05,NNW,338,10.3,11.4,64,0.00,,,0.00,WUHU216HW,2013-07-01 14:48:00,
2013-07-01 08:51:00,71.8,59.4,30.05,NNW,338,9.8,11.2,65,0.00,,,0.00,WUHU216HW,2013-07-01 14:51:00,
2013-07-01 08:52:00,71.8,59.4,30.05,NNW,338,9.8,11.2,65,0.00,,,0.00,WUHU216HW,2013-07-01 14:52:00,
2013-07-01 08:53:00,71.6,59.2,30.05,NNW,338,8.3,11.2,65,0.00,,,0.00,WUHU216HW,2013-07-01 14:53:00,
2013-07-01 08:56:00,71.8,59.0,30.05,NNW,338,6.9,12.3,64,0.00,,,0.00,WUHU216HW,2013-07-01 14:56:00,
2013-07-01 08:57:00,72.0,59.6,30.05,NW,315,6.3,12.3,65,0.00,,,0.00,WUHU216HW,2013-07-01 14:57:00,
2013-07-01 08:58:00,72.2,59.3,30.05,NNW,338,12.3,12.3,64,0.00,,,0.00,WUHU216HW,2013-07-01 14:58:00,
2013-07-01 09:02:00,72.4,59.5,30.05,NNW,338,8.1,12.8,64,0.00,,,0.00,WUHU216HW,2013-07-01 15:02:00,
2013-07-01 09:03:00,72.4,59.5,30.05,NNW,338,7.8,12.8,64,0.00,,,0.00,WUHU216HW,2013-07-01 15:03:00,
2013-07-01 09:07:00,72.7,60.2,30.05,NNW,338,7.8,12.8,65,0.00,,,0.00,WUHU216HW,2013-07-01 15:07:00,
2013-07-01 09:08:00,72.7,59.4,30.05,NNW,338,9.2,12.8,63,0.00,,,0.00,WUHU216HW,2013-07-01 15:08:00,
2013-07-01 09:09:00,72.7,59.4,30.05,NNW,338,8.7,12.8,63,0.00,,,0.00,WUHU216HW,2013-07-01 15:09:00,
2013-07-01 09:12:00,73.1,59.7,30.05,North,0,6.3,11.4,63,0.00,,,0.00,WUHU216HW,2013-07-01 15:12:00,
2013-07-01 09:13:00,73.1,59.2,30.04,NNW,338,6.9,10.7,62,0.00,,,0.00,WUHU216HW,2013-07-01 15:13:00,
2013-07-01 09:14:00,73.1,59.7,30.05,NNW,338,7.8,10.7,63,0.00,,,0.00,WUHU216HW,2013-07-01 15:14:00,
2013-07-01 09:17:00,72.9,59.5,30.05,North,0,7.6,10.7,63,0.00,,,0.00,WUHU216HW,2013-07-01 15:17:00,
2013-07-01 09:18:00,72.9,59.5,30.05,NNW,338,8.1,10.7,63,0.00,,,0.00,WUHU216HW,2013-07-01 15:18:00,
2013-07-01 09:19:00,72.9,59.5,30.05,NW,315,7.6,10.7,63,0.00,,,0.00,WUHU216HW,2013-07-01 15:19:00,
2013-07-01 09:20:00,72.9,59.5,30.05,North,0,8.5,10.7,63,0.00,,,0.00,WUHU216HW,2013-07-01 15:20:00,
2013-07-01 09:22:00,73.1,59.7,30.05,NNW,338,4.9,9.8,63,0.00,,,0.00,WUHU216HW,2013-07-01 15:22:00,
2013-07-01 09:23:00,73.1,59.7,30.05,NNW,338,7.6,9.8,63,0.00,,,0.00,WUHU216HW,2013-07-01 15:23:00,
2013-07-01 09:24:00,73.1,59.7,30.05,NNW,338,9.2,9.8,63,0.00,,,0.00,WUHU216HW,2013-07-01 15:24:00,
2013-07-01 09:25:00,73.1,59.2,30.05,NNW,338,4.7,9.8,62,0.00,,,0.00,WUHU216HW,2013-07-01 15:25:00,
2013-07-01 09:27:00,73.3,59.4,30.05,NNW,338,6.3,9.2,62,0.00,,,0.00,WUHU216HW,2013-07-01 15:27:00,
2013-07-01 09:28:00,73.4,59.6,30.05,North,0,6.3,9.2,62,0.00,,,0.00,WUHU216HW,2013-07-01 15:28:00,
2013-07-01 09:29:00,73.4,59.6,30.05,North,0,7.2,9.2,62,0.00,,,0.00,WUHU216HW,2013-07-01 15:29:00,
2013-07-01 09:30:00,73.4,59.6,30.05,North,0,7.8,9.2,62,0.00,,,0.00,WUHU216HW,2013-07-01 15:30:00,
2013-07-01 09:32:00,73.4,59.1,30.05,NW,315,7.6,10.5,61,0.00,,,0.00,WUHU216HW,2013-07-01 15:32:00,
2013-07-01 09:33:00,73.6,59.8,30.05,NNW,338,7.6,10.5,62,0.00,,,0.00,WUHU216HW,2013-07-01 15:33:00,
2013-07-01 09:34:00,73.6,59.8,30.04,North,0,8.3,10.5,62,0.00,,,0.00,WUHU216HW,2013-07-01 15:34:00,
2013-07-01 09:35:00,73.6,59.8,30.04,North,0,6.9,10.5,62,0.00,,,0.00,WUHU216HW,2013-07-01 15:35:00,
2013-07-01 09:38:00,73.8,60.0,30.04,NNW,338,8.1,10.5,62,0.00,,,0.00,WUHU216HW,2013-07-01 15:38:00,
2013-07-01 09:39:00,73.8,60.0,30.04,North,0,5.4,10.5,62,0.00,,,0.00,WUHU216HW,2013-07-01 15:39:00,
2013-07-01 09:40:00,74.2,60.3,30.04,NNW,338,6.9,10.5,62,0.00,,,0.00,WUHU216HW,2013-07-01 15:40:00,
2013-07-01 09:43:00,74.5,59.8,30.04,North,0,6.3,10.5,60,0.00,,,0.00,WUHU216HW,2013-07-01 15:43:00,
2013-07-01 09:44:00,74.5,59.8,30.04,North,0,6.3,10.5,60,0.00,,,0.00,WUHU216HW,2013-07-01 15:44:00,
2013-07-01 09:45:00,74.5,59.8,30.04,NNW,338,8.9,10.5,60,0.00,,,0.00,WUHU216HW,2013-07-01 15:45:00,
2013-07-01 09:48:00,74.7,59.9,30.04,North,0,6.0,8.9,60,0.00,,,0.00,WUHU216HW,2013-07-01 15:48:00,
2013-07-01 09:49:00,74.7,59.9,30.04,North,0,6.0,8.9,60,0.00,,,0.00,WUHU216HW,2013-07-01 15:49:00,
2013-07-01 09:50:00,74.5,59.2,30.04,NW,315,7.2,8.9,59,0.00,,,0.00,WUHU216HW,2013-07-01 15:50:00,
2013-07-01 09:54:00,74.9,59.6,30.04,NNW,338,8.5,8.9,59,0.00,,,0.00,WUHU216HW,2013-07-01 15:54:00,
2013-07-01 09:55:00,75.1,59.8,30.04,North,0,6.7,8.9,59,0.00,,,0.00,WUHU216HW,2013-07-01 15:55:00,
2013-07-01 09:56:00,75.1,59.3,30.04,North,0,6.7,8.9,58,0.00,,,0.00,WUHU216HW,2013-07-01 15:56:00,
2013-07-01 09:59:00,75.2,59.5,30.04,NNW,338,6.5,8.9,58,0.00,,,0.00,WUHU216HW,2013-07-01 15:59:00,
2013-07-01 10:00:00,75.4,59.7,30.04,North,0,4.0,8.9,58,0.00,,,0.00,WUHU216HW,2013-07-01 16:00:00,
2013-07-01 10:01:00,75.4,59.7,30.04,North,0,4.0,8.9,58,0.00,,,0.00,WUHU216HW,2013-07-01 16:01:00,
2013-07-01 10:04:00,75.2,59.5,30.04,North,0,4.5,8.9,58,0.00,,,0.00,WUHU216HW,2013-07-01 16:04:00,
2013-07-01 10:05:00,75.4,59.7,30.04,North,0,4.9,7.8,58,0.00,,,0.00,WUHU216HW,2013-07-01 16:05:00,
2013-07-01 10:06:00,75.4,59.7,30.04,North,0,4.9,7.8,58,0.00,,,0.00,WUHU216HW,2013-07-01 16:06:00,
2013-07-01 10:09:00,75.6,59.8,30.04,NNW,338,4.0,7.8,58,0.00,,,0.00,WUHU216HW,2013-07-01 16:09:00,
2013-07-01 10:11:00,75.6,59.3,30.04,NNW,338,4.3,7.8,57,0.00,,,0.00,WUHU216HW,2013-07-01 16:11:00,
2013-07-01 10:14:00,75.6,59.8,30.04,North,0,4.5,7.8,58,0.00,,,0.00,WUHU216HW,2013-07-01 16:14:00,
2013-07-01 10:15:00,75.6,59.8,30.04,NNW,338,6.3,7.8,58,0.00,,,0.00,WUHU216HW,2013-07-01 16:15:00,
2013-07-01 10:16:00,75.6,59.8,30.04,NW,315,6.3,7.8,58,0.00,,,0.00,WUHU216HW,2013-07-01 16:16:00,
2013-07-01 10:20:00,76.0,59.1,30.04,North,0,3.8,7.2,56,0.00,,,0.00,WUHU216HW,2013-07-01 16:20:00,
2013-07-01 10:21:00,76.1,58.8,30.04,NNE,23,4.9,7.6,55,0.00,,,0.00,WUHU216HW,2013-07-01 16:21:00,
2013-07-01 10:25:00,76.7,59.8,30.03,North,0,3.4,7.6,56,0.00,,,0.00,WUHU216HW,2013-07-01 16:25:00,
2013-07-01 10:26:00,76.9,59.4,30.04,North,0,4.5,7.6,55,0.00,,,0.00,WUHU216HW,2013-07-01 16:26:00,
2013-07-01 10:30:00,77.2,58.8,30.03,North,0,8.3,8.3,53,0.00,,,0.00,WUHU216HW,2013-07-01 16:30:00,
2013-07-01 10:31:00,77.0,58.6,30.03,North,0,4.5,8.3,53,0.00,,,0.00,WUHU216HW,2013-07-01 16:31:00,
2013-07-01 10:35:00,77.0,59.6,30.03,NNW,338,4.5,8.3,55,0.00,,,0.00,WUHU216HW,2013-07-01 16:35:00,
2013-07-01 10:36:00,77.2,59.2,30.03,NNW,338,5.4,8.3,54,0.00,,,0.00,WUHU216HW,2013-07-01 16:36:00,
2013-07-01 10:37:00,77.2,59.2,30.03,NW,315,3.4,8.3,54,0.00,,,0.00,WUHU216HW,2013-07-01 16:37:00,
2013-07-01 10:40:00,77.8,59.2,30.03,NW,315,2.7,6.9,53,0.00,,,0.00,WUHU216HW,2013-07-01 16:40:00,
2013-07-01 10:41:00,77.8,59.2,30.03,NNW,338,2.0,6.9,53,0.00,,,0.00,WUHU216HW,2013-07-01 16:41:00,
2013-07-01 10:42:00,77.9,58.9,30.03,NNW,338,4.5,6.9,52,0.00,,,0.00,WUHU216HW,2013-07-01 16:42:00,
2013-07-01 10:45:00,78.3,59.2,30.03,North,0,4.0,5.4,52,0.00,,,0.00,WUHU216HW,2013-07-01 16:45:00,
2013-07-01 10:46:00,78.3,59.2,30.03,NNW,338,2.0,5.4,52,0.00,,,0.00,WUHU216HW,2013-07-01 16:46:00,
2013-07-01 10:47:00,78.5,58.9,30.03,NNE,23,4.5,5.4,51,0.00,,,0.00,WUHU216HW,2013-07-01 16:47:00,
2013-07-01 10:50:00,78.8,59.2,30.03,NNE,23,3.8,6.3,51,0.00,,,0.00,WUHU216HW,2013-07-01 16:50:00,
2013-07-01 10:51:00,78.8,59.8,30.03,North,0,3.4,6.3,52,0.00,,,0.00,WUHU216HW,2013-07-01 16:51:00,
2013-07-01 10:52:00,78.8,59.8,30.03,North,0,4.9,6.3,52,0.00,,,0.00,WUHU216HW,2013-07-01 16:52:00,
2013-07-01 10:55:00,78.8,59.8,30.03,NE,45,3.1,6.3,52,0.00,,,0.00,WUHU216HW,2013-07-01 16:55:00,
2013-07-01 10:57:00,79.0,59.9,30.03,NNE,23,3.8,6.3,52,0.00,,,0.00,WUHU216HW,2013-07-01 16:57:00,
2013-07-01 10:58:00,79.2,59.5,30.03,NE,45,4.7,6.3,51,0.00,,,0.00,WUHU216HW,2013-07-01 16:58:00,
2013-07-01 11:01:00,79.6,59.3,30.03,North,0,3.1,6.0,50,0.00,,,0.00,WUHU216HW,2013-07-01 17:01:00,
2013-07-01 11:02:00,79.6,58.7,30.03,NNE,23,1.8,6.0,49,0.00,,,0.00,WUHU216HW,2013-07-01 17:02:00,
2013-07-01 11:03:00,79.6,59.9,30.03,NE,45,4.9,6.0,51,0.00,,,0.00,WUHU216HW,2013-07-01 17:03:00,
2013-07-01 11:06:00,79.9,59.0,30.03,ENE,68,2.7,6.0,49,0.00,,,0.00,WUHU216HW,2013-07-01 17:06:00,
2013-07-01 11:07:00,80.1,59.2,30.03,NNE,23,1.8,6.0,49,0.00,,,0.00,WUHU216HW,2013-07-01 17:07:00,
2013-07-01 11:08:00,80.1,59.9,30.03,ESE,113,1.6,5.1,50,0.00,,,0.00,WUHU216HW,2013-07-01 17:08:00,
2013-07-01 11:09:00,80.3,59.9,30.03,ESE,113,1.8,5.1,50,0.00,,,0.00,WUHU216HW,2013-07-01 17:09:00,
2013-07-01 11:12:00,80.8,59.2,30.03,North,0,1.1,5.1,48,0.00,,,0.00,WUHU216HW,2013-07-01 17:12:00,
2013-07-01 11:13:00,81.0,59.4,30.03,North,0,0.7,5.1,48,0.00,,,0.00,WUHU216HW,2013-07-01 17:13:00,
2013-07-01 11:14:00,81.2,59.6,30.03,North,0,0.9,4.7,48,0.00,,,0.00,WUHU216HW,2013-07-01 17:14:00,
2013-07-01 11:17:00,81.5,58.7,30.03,East,90,4.7,5.6,46,0.00,,,0.00,WUHU216HW,2013-07-01 17:17:00,
2013-07-01 11:19:00,81.5,59.3,30.03,SSW,203,2.7,5.6,47,0.00,,,0.00,WUHU216HW,2013-07-01 17:19:00,
2013-07-01 11:20:00,81.7,59.4,30.03,SSE,158,2.2,5.6,47,0.00,,,0.00,WUHU216HW,2013-07-01 17:20:00,
2013-07-01 11:22:00,82.1,59.8,30.03,NE,45,1.8,5.6,47,0.00,,,0.00,WUHU216HW,2013-07-01 17:22:00,
2013-07-01 11:24:00,82.3,59.3,30.03,North,0,3.4,5.6,46,0.00,,,0.00,WUHU216HW,2013-07-01 17:24:00,
2013-07-01 11:25:00,82.3,59.3,30.03,NNW,338,2.9,5.6,46,0.00,,,0.00,WUHU216HW,2013-07-01 17:25:00,
2013-07-01 11:27:00,82.1,59.1,30.03,West,270,3.4,4.9,46,0.00,,,0.00,WUHU216HW,2013-07-01 17:27:00,
2013-07-01 11:29:00,82.4,59.5,30.03,WSW,248,4.0,4.7,46,0.00,,,0.00,WUHU216HW,2013-07-01 17:29:00,
2013-07-01 11:30:00,82.4,59.5,30.03,West,270,1.8,4.7,46,0.00,,,0.00,WUHU216HW,2013-07-01 17:30:00,
2013-07-01 11:32:00,83.0,58.8,30.03,NNW,338,1.1,4.7,44,0.00,,,0.00,WUHU216HW,2013-07-01 17:32:00,
2013-07-01 11:33:00,83.0,58.8,30.03,NNW,338,1.1,4.7,44,0.00,,,0.00,WUHU216HW,2013-07-01 17:33:00,
2013-07-01 11:34:00,83.2,59.6,30.03,North,0,2.5,4.7,45,0.00,,,0.00,WUHU216HW,2013-07-01 17:34:00,
2013-07-01 11:35:00,83.3,59.8,30.03,ESE,113,4.9,4.9,45,0.00,,,0.00,WUHU216HW,2013-07-01 17:35:00,
2013-07-01 11:38:00,84.1,60.4,30.03,East,90,4.7,5.1,45,0.00,,,0.00,WUHU216HW,2013-07-01 17:38:00,
2013-07-01 11:39:00,84.2,60.6,30.03,East,90,5.6,5.6,45,0.00,,,0.00,WUHU216HW,2013-07-01 17:39:00,
2013-07-01 11:40:00,84.2,60.6,30.03,East,90,5.6,5.6,45,0.00,,,0.00,WUHU216HW,2013-07-01 17:40:00,
2013-07-01 11:43:00,85.0,59.9,30.03,SSE,158,4.7,5.6,43,0.00,,,0.00,WUHU216HW,2013-07-01 17:43:00,
2013-07-01 11:44:00,85.3,59.7,30.03,NE,45,2.9,5.6,42,0.00,,,0.00,WUHU216HW,2013-07-01 17:44:00,
2013-07-01 11:46:00,85.5,59.9,30.03,SE,135,5.4,6.3,42,0.00,,,0.00,WUHU216HW,2013-07-01 17:46:00,
2013-07-01 11:48:00,86.0,59.7,30.03,ESE,113,4.0,7.2,41,0.00,,,0.00,WUHU216HW,2013-07-01 17:48:00,
2013-07-01 11:49:00,86.4,58.6,30.03,ESE,113,4.3,7.2,39,0.00,,,0.00,WUHU216HW,2013-07-01 17:49:00,
2013-07-01 11:52:00,86.8,58.9,30.03,ESE,113,3.8,7.2,39,0.00,,,0.00,WUHU216HW,2013-07-01 17:52:00,
2013-07-01 11:53:00,86.8,58.9,30.03,ESE,113,3.8,7.2,39,0.00,,,0.00,WUHU216HW,2013-07-01 17:53:00,
2013-07-01 11:54:00,87.7,59.7,30.02,ESE,113,3.8,7.2,39,0.00,,,0.00,WUHU216HW,2013-07-01 17:54:00,
2013-07-01 11:57:00,87.8,60.7,30.02,SSE,158,6.5,6.5,40,0.00,,,0.00,WUHU216HW,2013-07-01 17:57:00,
2013-07-01 11:58:00,88.0,60.9,30.02,SSE,158,4.0,6.5,40,0.00,,,0.00,WUHU216HW,2013-07-01 17:58:00,
2013-07-01 11:59:00,88.0,60.9,30.02,South,180,2.0,6.5,40,0.00,,,0.00,WUHU216HW,2013-07-01 17:59:00,
2013-07-01 12:00:00,88.2,60.1,30.02,SE,135,0.9,6.5,39,0.00,,,0.00,WUHU216HW,2013-07-01 18:00:00,
2013-07-01 12:02:00,88.2,60.1,30.02,SSE,158,2.5,6.5,39,0.00,,,0.00,WUHU216HW,2013-07-01 18:02:00,
2013-07-01 12:03:00,88.2,60.1,30.02,SSE,158,2.5,6.5,39,0.00,,,0.00,WUHU216HW,2013-07-01 18:03:00,
2013-07-01 12:04:00,88.9,60.8,30.02,SSE,158,3.4,6.5,39,0.00,,,0.00,WUHU216HW,2013-07-01 18:04:00,
2013-07-01 12:05:00,88.9,60.8,30.02,SSE,158,3.1,6.5,39,0.00,,,0.00,WUHU216HW,2013-07-01 18:05:00,
2013-07-01 12:07:00,89.5,61.2,30.02,South,180,4.7,6.9,39,0.00,,,0.00,WUHU216HW,2013-07-01 18:07:00,
2013-07-01 12:08:00,89.6,58.1,30.02,ENE,68,4.7,6.9,35,0.00,,,0.00,WUHU216HW,2013-07-01 18:08:00,
2013-07-01 12:09:00,89.6,59.0,30.02,ENE,68,7.4,7.4,36,0.00,,,0.00,WUHU216HW,2013-07-01 18:09:00,
2013-07-01 12:10:00,89.6,59.0,30.02,ENE,68,7.4,7.4,36,0.00,,,0.00,WUHU216HW,2013-07-01 18:10:00,
2013-07-01 12:12:00,88.9,58.3,30.02,SE,135,4.0,7.4,36,0.00,,,0.00,WUHU216HW,2013-07-01 18:12:00,
2013-07-01 12:13:00,88.9,57.5,30.02,SE,135,7.2,7.4,35,0.00,,,0.00,WUHU216HW,2013-07-01 18:13:00,
2013-07-01 12:14:00,89.1,57.7,30.02,East,90,6.7,7.4,35,0.00,,,0.00,WUHU216HW,2013-07-01 18:14:00,
2013-07-01 12:15:00,89.1,58.5,30.02,East,90,5.8,8.5,36,0.00,,,0.00,WUHU216HW,2013-07-01 18:15:00,
2013-07-01 12:17:00,89.3,57.9,30.02,SE,135,6.9,8.5,35,0.00,,,0.00,WUHU216HW,2013-07-01 18:17:00,
2013-07-01 12:18:00,89.3,57.9,30.01,SE,135,6.9,8.5,35,0.00,,,0.00,WUHU216HW,2013-07-01 18:18:00,
2013-07-01 12:19:00,89.3,57.9,30.01,SE,135,6.9,8.5,35,0.00,,,0.00,WUHU216HW,2013-07-01 18:19:00,
2013-07-01 12:20:00,89.5,58.8,30.02,SE,135,5.6,8.5,36,0.00,,,0.00,WUHU216HW,2013-07-01 18:20:00,
2013-07-01 12:22:00,89.8,58.3,30.01,SE,135,5.8,8.5,35,0.00,,,0.00,WUHU216HW,2013-07-01 18:22:00,
2013-07-01 12:23:00,89.8,58.3,30.01,SE,135,5.8,8.5,35,0.00,,,0.00,WUHU216HW,2013-07-01 18:23:00,
2013-07-01 12:24:00,89.8,58.3,30.01,SE,135,5.8,7.6,35,0.00,,,0.00,WUHU216HW,2013-07-01 18:24:00,
2013-07-01 12:25:00,89.8,58.3,30.01,SE,135,5.8,7.6,35,0.00,,,0.00,WUHU216HW,2013-07-01 18:25:00,
2013-07-01 12:26:00,89.8,58.3,30.01,SE,135,5.8,7.6,35,0.00,,,0.00,WUHU216HW,2013-07-01 18:26:00,
2013-07-01 12:28:00,90.5,58.1,30.01,SSE,158,6.3,7.6,34,0.00,,,0.00,WUHU216HW,2013-07-01 18:28:00,
2013-07-01 12:29:00,90.7,58.3,30.01,SSE,158,7.6,7.6,34,0.00,,,0.00,WUHU216HW,2013-07-01 18:29:00,
2013-07-01 12:30:00,90.9,58.5,30.00,SSE,158,2.0,7.6,34,0.00,,,0.00,WUHU216HW,2013-07-01 18:30:00,
2013-07-01 12:31:00,91.1,58.7,30.00,ESE,113,5.4,7.6,34,0.00,,,0.00,WUHU216HW,2013-07-01 18:31:00,
2013-07-01 12:33:00,91.3,58.8,30.00,ESE,113,7.6,7.6,34,0.00,,,0.00,WUHU216HW,2013-07-01 18:33:00,
2013-07-01 12:34:00,91.3,55.6,30.00,East,90,6.0,9.2,30,0.00,,,0.00,WUHU216HW,2013-07-01 18:34:00,
2013-07-01 12:35:00,91.1,57.9,30.00,ENE,68,2.5,9.2,33,0.00,,,0.00,WUHU216HW,2013-07-01 18:35:00,
2013-07-01 12:36:00,90.9,58.5,30.00,SE,135,5.4,9.2,34,0.00,,,0.00,WUHU216HW,2013-07-01 18:36:00,
2013-07-01 12:38:00,90.9,56.1,30.00,East,90,9.2,9.2,31,0.00,,,0.00,WUHU216HW,2013-07-01 18:38:00,
2013-07-01 12:39:00,90.7,56.7,30.00,ESE,113,6.9,9.2,32,0.00,,,0.00,WUHU216HW,2013-07-01 18:39:00,
2013-07-01 12:40:00,90.7,57.5,30.00,ESE,113,6.9,9.2,33,0.00,,,0.00,WUHU216HW,2013-07-01 18:40:00,
2013-07-01 12:41:00,90.5,55.8,30.00,ENE,68,8.3,11.4,31,0.00,,,0.00,WUHU216HW,2013-07-01 18:41:00,
2013-07-01 12:43:00,90.0,55.3,30.01,ENE,68,7.4,12.1,31,0.00,,,0.00,WUHU216HW,2013-07-01 18:43:00,
2013-07-01 12:44:00,90.0,56.1,30.01,ENE,68,7.4,12.1,32,0.00,,,0.00,WUHU216HW,2013-07-01 18:44:00,
2013-07-01 12:45:00,90.0,56.1,30.01,ENE,68,7.4,12.1,32,0.00,,,0.00,WUHU216HW,2013-07-01 18:45:00,
2013-07-01 12:47:00,89.6,55.8,30.01,ESE,113,2.9,12.1,32,0.00,,,0.00,WUHU216HW,2013-07-01 18:47:00,
2013-07-01 12:48:00,89.8,56.7,30.01,South,180,3.8,12.1,33,0.00,,,0.00,WUHU216HW,2013-07-01 18:48:00,
2013-07-01 12:49:00,90.0,56.9,30.01,ESE,113,1.1,12.1,33,0.00,,,0.00,WUHU216HW,2013-07-01 18:49:00,
2013-07-01 12:50:00,90.0,56.9,30.01,ESE,113,3.8,12.1,33,0.00,,,0.00,WUHU216HW,2013-07-01 18:50:00,
2013-07-01 12:51:00,90.4,56.4,30.01,East,90,7.6,12.1,32,0.00,,,0.00,WUHU216HW,2013-07-01 18:51:00,
2013-07-01 12:52:00,90.7,55.2,30.01,ESE,113,7.8,12.1,30,0.00,,,0.00,WUHU216HW,2013-07-01 18:52:00,
2013-07-01 12:53:00,90.7,56.7,30.01,ENE,68,6.3,9.4,32,0.00,,,0.00,WUHU216HW,2013-07-01 18:53:00,
2013-07-01 12:54:00,90.7,56.7,30.01,ENE,68,5.8,9.4,32,0.00,,,0.00,WUHU216HW,2013-07-01 18:54:00,
2013-07-01 12:55:00,90.7,56.0,30.01,East,90,7.8,9.4,31,0.00,,,0.00,WUHU216HW,2013-07-01 18:55:00,
2013-07-01 12:56:00,90.9,56.9,30.01,ESE,113,8.9,9.4,32,0.00,,,0.00,WUHU216HW,2013-07-01 18:56:00,
2013-07-01 12:57:00,91.1,57.1,30.01,SE,135,3.4,9.4,32,0.00,,,0.00,WUHU216HW,2013-07-01 18:57:00,
2013-07-01 12:59:00,91.6,57.5,30.01,ESE,113,5.6,9.4,32,0.00,,,0.00,WUHU216HW,2013-07-01 18:59:00,
2013-07-01 13:00:00,92.0,57.9,30.01,East,90,5.4,9.4,32,0.00,,,0.00,WUHU216HW,2013-07-01 19:00:00,
2013-07-01 13:01:00,92.0,57.1,30.01,ESE,113,2.5,9.4,31,0.00,,,0.00,WUHU216HW,2013-07-01 19:01:00,
2013-07-01 13:03:00,92.3,55.5,30.02,ENE,68,8.9,8.9,29,0.00,,,0.00,WUHU216HW,2013-07-01 19:03:00,
2013-07-01 13:04:00,92.3,55.5,30.02,ESE,113,6.3,8.9,29,0.00,,,0.00,WUHU216HW,2013-07-01 19:04:00,
2013-07-01 13:06:00,92.2,56.3,30.02,SSE,158,6.3,8.9,30,0.00,,,0.00,WUHU216HW,2013-07-01 19:06:00,
2013-07-01 13:08:00,92.5,57.5,30.02,ESE,113,8.1,8.9,31,0.00,,,0.00,WUHU216HW,2013-07-01 19:08:00,
2013-07-01 13:09:00,92.7,57.6,30.02,SSE,158,4.0,8.9,31,0.00,,,0.00,WUHU216HW,2013-07-01 19:09:00,
2013-07-01 13:10:00,92.7,57.6,30.02,SSE,158,4.0,8.9,31,0.00,,,0.00,WUHU216HW,2013-07-01 19:10:00,
2013-07-01 13:11:00,93.1,57.1,30.02,East,90,4.7,8.9,30,0.00,,,0.00,WUHU216HW,2013-07-01 19:11:00,
2013-07-01 13:13:00,93.2,52.8,30.02,NE,45,7.8,8.1,26,0.00,,,0.00,WUHU216HW,2013-07-01 19:13:00,
2013-07-01 13:15:00,92.7,55.7,30.02,ESE,113,4.3,8.1,29,0.00,,,0.00,WUHU216HW,2013-07-01 19:15:00,
2013-07-01 13:16:00,92.3,53.2,30.02,NE,45,4.5,8.1,27,0.00,,,0.00,WUHU216HW,2013-07-01 19:16:00,
2013-07-01 13:18:00,92.2,56.3,30.02,SSE,158,6.0,8.9,30,0.00,,,0.00,WUHU216HW,2013-07-01 19:18:00,
2013-07-01 13:20:00,92.5,56.7,30.02,ENE,68,4.7,8.9,30,0.00,,,0.00,WUHU216HW,2013-07-01 19:20:00,
2013-07-01 13:21:00,92.5,55.5,30.02,SE,135,4.5,8.9,29,0.00,,,0.00,WUHU216HW,2013-07-01 19:21:00,
2013-07-01 13:22:00,92.9,53.6,30.02,ENE,68,7.6,8.9,27,0.00,,,0.00,WUHU216HW,2013-07-01 19:22:00,
2013-07-01 13:24:00,92.5,52.3,30.02,ENE,68,6.7,8.9,26,0.00,,,0.00,WUHU216HW,2013-07-01 19:24:00,
2013-07-01 13:25:00,92.3,53.2,30.02,ESE,113,4.3,8.9,27,0.00,,,0.00,WUHU216HW,2013-07-01 19:25:00,
2013-07-01 13:26:00,92.3,55.5,30.02,SSE,158,4.5,8.9,29,0.00,,,0.00,WUHU216HW,2013-07-01 19:26:00,
2013-07-01 13:27:00,92.3,55.5,30.02,ESE,113,4.3,8.9,29,0.00,,,0.00,WUHU216HW,2013-07-01 19:27:00,
2013-07-01 13:29:00,92.5,52.3,30.02,East,90,3.4,7.8,26,0.00,,,0.00,WUHU216HW,2013-07-01 19:29:00,
2013-07-01 13:30:00,92.5,53.4,30.02,NE,45,6.7,7.8,27,0.00,,,0.00,WUHU216HW,2013-07-01 19:30:00,
2013-07-01 13:31:00,92.7,53.6,30.02,NE,45,6.7,7.8,27,0.00,,,0.00,WUHU216HW,2013-07-01 19:31:00,
2013-07-01 13:32:00,92.7,52.4,30.02,East,90,6.5,7.8,26,0.00,,,0.00,WUHU216HW,2013-07-01 19:32:00,
2013-07-01 13:34:00,92.7,54.6,30.02,ENE,68,7.8,10.1,28,0.00,,,0.00,WUHU216HW,2013-07-01 19:34:00,
2013-07-01 13:35:00,92.9,53.6,30.02,ESE,113,7.6,10.1,27,0.00,,,0.00,WUHU216HW,2013-07-01 19:35:00,
2013-07-01 13:36:00,92.9,53.6,30.02,East,90,7.6,10.1,27,0.00,,,0.00,WUHU216HW,2013-07-01 19:36:00,
2013-07-01 13:37:00,92.9,51.5,30.02,North,0,8.3,10.1,25,0.00,,,0.00,WUHU216HW,2013-07-01 19:37:00,
2013-07-01 13:39:00,92.5,52.3,30.02,ENE,68,2.2,10.1,26,0.00,,,0.00,WUHU216HW,2013-07-01 19:39:00,
2013-07-01 13:41:00,92.0,52.9,30.02,SE,135,4.9,10.1,27,0.00,,,0.00,WUHU216HW,2013-07-01 19:41:00,
2013-07-01 13:42:00,92.0,52.9,30.02,East,90,6.0,10.1,27,0.00,,,0.00,WUHU216HW,2013-07-01 19:42:00,
2013-07-01 13:44:00,92.0,52.9,30.01,SSE,158,7.6,9.8,27,0.00,,,0.00,WUHU216HW,2013-07-01 19:44:00,
2013-07-01 13:46:00,92.2,53.1,30.01,SSE,158,5.4,9.8,27,0.00,,,0.00,WUHU216HW,2013-07-01 19:46:00,
2013-07-01 13:47:00,92.2,53.1,30.01,SSW,203,2.9,8.5,27,0.00,,,0.00,WUHU216HW,2013-07-01 19:47:00,
2013-07-01 13:49:00,92.0,51.8,30.01,ENE,68,7.6,8.5,26,0.00,,,0.00,WUHU216HW,2013-07-01 19:49:00,
2013-07-01 13:51:00,91.6,49.3,30.01,NNW,338,1.6,8.5,24,0.00,,,0.00,WUHU216HW,2013-07-01 19:51:00,
2013-07-01 13:52:00,91.4,52.5,30.01,SE,135,3.1,7.6,27,0.00,,,0.00,WUHU216HW,2013-07-01 19:52:00,
2013-07-01 13:53:00,91.4,52.5,30.01,SE,135,3.1,7.6,27,0.00,,,0.00,WUHU216HW,2013-07-01 19:53:00,
2013-07-01 13:54:00,91.4,52.5,30.01,SE,135,3.6,7.6,27,0.00,,,0.00,WUHU216HW,2013-07-01 19:54:00,
2013-07-01 13:56:00,91.6,54.8,30.01,SSE,158,2.2,7.6,29,0.00,,,0.00,WUHU216HW,2013-07-01 19:56:00,
2013-07-01 13:57:00,91.8,55.0,30.01,SSE,158,3.6,7.6,29,0.00,,,0.00,WUHU216HW,2013-07-01 19:57:00,
2013-07-01 13:58:00,91.8,55.0,30.01,SSE,158,3.6,7.6,29,0.00,,,0.00,WUHU216HW,2013-07-01 19:58:00,
2013-07-01 14:00:00,92.3,55.5,30.00,ENE,68,4.5,7.2,29,0.00,,,0.00,WUHU216HW,2013-07-01 20:00:00,
2013-07-01 14:01:00,92.5,52.3,30.00,NE,45,4.3,7.2,26,0.00,,,0.00,WUHU216HW,2013-07-01 20:01:00,
2013-07-01 14:03:00,92.5,53.4,30.00,East,90,2.2,7.2,27,0.00,,,0.00,WUHU216HW,2013-07-01 20:03:00,
2013-07-01 14:05:00,92.5,53.4,30.00,ESE,113,7.4,7.4,27,0.00,,,0.00,WUHU216HW,2013-07-01 20:05:00,
2013-07-01 14:07:00,92.9,53.6,30.00,ESE,113,6.9,9.2,27,0.00,,,0.00,WUHU216HW,2013-07-01 20:07:00,
2013-07-01 14:08:00,93.2,53.9,30.00,ESE,113,7.2,9.2,27,0.00,,,0.00,WUHU216HW,2013-07-01 20:08:00,
2013-07-01 14:10:00,93.6,52.0,30.00,ESE,113,2.9,9.2,25,0.00,,,0.00,WUHU216HW,2013-07-01 20:10:00,
2013-07-01 14:12:00,93.6,53.2,30.00,ESE,113,2.9,9.2,26,0.00,,,0.00,WUHU216HW,2013-07-01 20:12:00,
2013-07-01 14:13:00,93.6,54.3,30.00,East,90,6.3,9.2,27,0.00,,,0.00,WUHU216HW,2013-07-01 20:13:00,
2013-07-01 14:15:00,93.6,50.9,30.00,East,90,3.4,9.2,24,0.00,,,0.00,WUHU216HW,2013-07-01 20:15:00,
2013-07-01 14:17:00,93.1,50.5,30.00,NNE,23,4.7,9.2,24,0.00,,,0.00,WUHU216HW,2013-07-01 20:17:00,
2013-07-01 14:18:00,92.7,50.2,30.00,ENE,68,2.2,9.2,24,0.00,,,0.00,WUHU216HW,2013-07-01 20:18:00,
2013-07-01 14:20:00,91.8,49.5,30.00,North,0,4.9,9.8,24,0.00,,,0.00,WUHU216HW,2013-07-01 20:20:00,
2013-07-01 14:22:00,91.6,50.5,30.00,ESE,113,2.5,9.8,25,0.00,,,0.00,WUHU216HW,2013-07-01 20:22:00,
2013-07-01 14:23:00,91.6,50.5,30.00,ESE,113,3.4,9.8,25,0.00,,,0.00,WUHU216HW,2013-07-01 20:23:00,
2013-07-01 14:24:00,91.6,51.6,30.00,ESE,113,2.0,9.8,26,0.00,,,0.00,WUHU216HW,2013-07-01 20:24:00,
2013-07-01 14:25:00,92.2,50.9,30.00,NE,45,3.4,9.8,25,0.00,,,0.00,WUHU216HW,2013-07-01 20:25:00,
2013-07-01 14:27:00,92.3,52.1,30.00,NE,45,1.1,9.8,26,0.00,,,0.00,WUHU216HW,2013-07-01 20:27:00,
2013-07-01 14:28:00,92.5,53.4,30.00,SE,135,3.4,9.8,27,0.00,,,0.00,WUHU216HW,2013-07-01 20:28:00,
2013-07-01 14:29:00,92.7,53.6,30.00,SE,135,4.7,9.8,27,0.00,,,0.00,WUHU216HW,2013-07-01 20:29:00,
2013-07-01 14:31:00,93.4,54.1,30.00,South,180,1.3,5.1,27,0.00,,,0.00,WUHU216HW,2013-07-01 20:31:00,
2013-07-01 14:32:00,93.8,53.3,30.00,NW,315,0.7,5.1,26,0.00,,,0.00,WUHU216HW,2013-07-01 20:32:00,
2013-07-01 14:33:00,94.0,52.4,29.99,East,90,6.3,6.3,25,0.00,,,0.00,WUHU216HW,2013-07-01 20:33:00,
2013-07-01 14:34:00,94.0,53.5,29.99,East,90,2.9,6.3,26,0.00,,,0.00,WUHU216HW,2013-07-01 20:34:00,
2013-07-01 14:36:00,94.3,53.8,30.00,SE,135,5.4,6.9,26,0.00,,,0.00,WUHU216HW,2013-07-01 20:36:00,
2013-07-01 14:37:00,94.5,53.9,29.99,SE,135,4.7,6.9,26,0.00,,,0.00,WUHU216HW,2013-07-01 20:37:00,
2013-07-01 14:38:00,94.7,54.1,29.99,ESE,113,4.7,6.9,26,0.00,,,0.00,WUHU216HW,2013-07-01 20:38:00,
2013-07-01 14:39:00,94.9,54.3,29.99,SE,135,2.0,6.9,26,0.00,,,0.00,WUHU216HW,2013-07-01 20:39:00,
2013-07-01 14:41:00,95.2,50.1,29.99,NE,45,6.0,6.9,22,0.00,,,0.00,WUHU216HW,2013-07-01 20:41:00,
2013-07-01 14:42:00,95.2,51.2,29.99,ENE,68,7.6,7.6,23,0.00,,,0.00,WUHU216HW,2013-07-01 20:42:00,
2013-07-01 14:43:00,95.0,52.2,29.99,East,90,7.6,7.6,24,0.00,,,0.00,WUHU216HW,2013-07-01 20:43:00,
2013-07-01 14:44:00,95.0,50.0,29.99,East,90,6.3,9.8,22,0.00,,,0.00,WUHU216HW,2013-07-01 20:44:00,
2013-07-01 14:46:00,94.5,50.6,29.99,ENE,68,4.3,9.8,23,0.00,,,0.00,WUHU216HW,2013-07-01 20:46:00,
2013-07-01 14:48:00,94.3,51.6,29.99,ESE,113,4.7,9.8,24,0.00,,,0.00,WUHU216HW,2013-07-01 20:48:00,
2013-07-01 14:49:00,94.3,51.6,29.99,ESE,113,0.9,9.8,24,0.00,,,0.00,WUHU216HW,2013-07-01 20:49:00,
2013-07-01 14:51:00,94.7,51.8,29.99,WSW,248,3.4,9.8,24,0.00,,,0.00,WUHU216HW,2013-07-01 20:51:00,
2013-07-01 14:53:00,95.0,51.0,29.99,NW,315,3.4,9.8,23,0.00,,,0.00,WUHU216HW,2013-07-01 20:53:00,
2013-07-01 14:55:00,94.9,48.7,29.99,North,0,1.3,5.4,21,0.00,,,0.00,WUHU216HW,2013-07-01 20:55:00,
2013-07-01 14:57:00,94.7,48.5,29.99,NNW,338,2.2,4.9,21,0.00,,,0.00,WUHU216HW,2013-07-01 20:57:00,
2013-07-01 14:58:00,94.3,45.4,29.99,NE,45,7.6,7.6,19,0.00,,,0.00,WUHU216HW,2013-07-01 20:58:00,
2013-07-01 14:59:00,94.3,45.4,29.99,NE,45,8.1,8.1,19,0.00,,,0.00,WUHU216HW,2013-07-01 20:59:00,
2013-07-01 15:00:00,93.6,44.8,29.99,North,0,6.9,9.6,19,0.00,,,0.00,WUHU216HW,2013-07-01 21:00:00,
2013-07-01 15:02:00,92.9,44.2,29.99,North,0,4.0,9.6,19,0.00,,,0.00,WUHU216HW,2013-07-01 21:02:00,
2013-07-01 15:03:00,92.7,46.9,29.99,NNE,23,1.3,9.6,21,0.00,,,0.00,WUHU216HW,2013-07-01 21:03:00,
2013-07-01 15:04:00,92.5,46.8,29.99,ENE,68,1.1,9.6,21,0.00,,,0.00,WUHU216HW,2013-07-01 21:04:00,
2013-07-01 15:05:00,92.5,49.0,29.99,NE,45,3.6,9.6,23,0.00,,,0.00,WUHU216HW,2013-07-01 21:05:00,
2013-07-01 15:07:00,92.7,49.2,29.99,ENE,68,6.3,9.6,23,0.00,,,0.00,WUHU216HW,2013-07-01 21:07:00,
2013-07-01 15:08:00,92.7,46.9,29.99,NE,45,10.5,10.5,21,0.00,,,0.00,WUHU216HW,2013-07-01 21:08:00,
2013-07-01 15:09:00,92.7,46.9,29.99,NNE,23,9.2,10.5,21,0.00,,,0.00,WUHU216HW,2013-07-01 21:09:00,
2013-07-01 15:10:00,92.5,46.8,29.99,North,0,9.8,13.4,21,0.00,,,0.00,WUHU216HW,2013-07-01 21:10:00,
2013-07-01 15:13:00,92.2,46.5,29.99,NE,45,6.9,13.4,21,0.00,,,0.00,WUHU216HW,2013-07-01 21:13:00,
2013-07-01 15:14:00,92.2,48.7,29.99,NNE,23,2.5,13.4,23,0.00,,,0.00,WUHU216HW,2013-07-01 21:14:00,
2013-07-01 15:16:00,92.2,46.5,29.98,NE,45,5.4,13.4,21,0.00,,,0.00,WUHU216HW,2013-07-01 21:16:00,
2013-07-01 15:18:00,92.2,46.5,29.98,NE,45,6.9,13.4,21,0.00,,,0.00,WUHU216HW,2013-07-01 21:18:00,
2013-07-01 15:19:00,92.2,46.5,29.99,NNE,23,7.2,13.4,21,0.00,,,0.00,WUHU216HW,2013-07-01 21:19:00,
2013-07-01 15:21:00,92.3,48.9,29.98,NE,45,2.9,9.4,23,0.00,,,0.00,WUHU216HW,2013-07-01 21:21:00,
2013-07-01 15:23:00,92.5,49.0,29.98,East,90,4.7,9.2,23,0.00,,,0.00,WUHU216HW,2013-07-01 21:23:00,
2013-07-01 15:24:00,92.5,49.0,29.98,East,90,3.6,9.2,23,0.00,,,0.00,WUHU216HW,2013-07-01 21:24:00,
2013-07-01 15:26:00,92.5,46.8,29.98,NNW,338,3.4,9.2,21,0.00,,,0.00,WUHU216HW,2013-07-01 21:26:00,
2013-07-01 15:28:00,92.2,46.5,29.98,NNW,338,8.5,9.2,21,0.00,,,0.00,WUHU216HW,2013-07-01 21:28:00,
2013-07-01 15:29:00,92.0,46.4,29.98,NNW,338,9.6,9.6,21,0.00,,,0.00,WUHU216HW,2013-07-01 21:29:00,
2013-07-01 15:31:00,91.6,46.1,29.98,North,0,14.1,14.1,21,0.00,,,0.00,WUHU216HW,2013-07-01 21:31:00,
2013-07-01 15:33:00,91.4,47.0,29.98,NNE,23,4.7,14.1,22,0.00,,,0.00,WUHU216HW,2013-07-01 21:33:00,
2013-07-01 15:34:00,91.4,45.9,29.98,NW,315,3.4,14.1,21,0.00,,,0.00,WUHU216HW,2013-07-01 21:34:00,
2013-07-01 15:35:00,91.4,45.9,29.98,WNW,293,2.0,14.1,21,0.00,,,0.00,WUHU216HW,2013-07-01 21:35:00,
2013-07-01 15:36:00,91.8,46.2,29.98,North,0,4.5,14.1,21,0.00,,,0.00,WUHU216HW,2013-07-01 21:36:00,
2013-07-01 15:38:00,91.8,43.4,29.98,NW,315,3.1,14.1,19,0.00,,,0.00,WUHU216HW,2013-07-01 21:38:00,
2013-07-01 15:39:00,91.8,43.4,29.98,North,0,2.0,14.1,19,0.00,,,0.00,WUHU216HW,2013-07-01 21:39:00,
2013-07-01 15:40:00,91.8,43.4,29.98,NNE,23,3.8,14.1,19,0.00,,,0.00,WUHU216HW,2013-07-01 21:40:00,
2013-07-01 15:41:00,91.8,43.4,29.98,NNW,338,6.7,9.8,19,0.00,,,0.00,WUHU216HW,2013-07-01 21:41:00,
2013-07-01 15:42:00,91.8,43.4,29.98,NNW,338,6.7,9.8,19,0.00,,,0.00,WUHU216HW,2013-07-01 21:42:00,
2013-07-01 15:43:00,92.2,43.7,29.98,WNW,293,8.1,8.1,19,0.00,,,0.00,WUHU216HW,2013-07-01 21:43:00,
2013-07-01 15:44:00,92.3,43.8,29.98,West,270,4.0,8.1,19,0.00,,,0.00,WUHU216HW,2013-07-01 21:44:00,
2013-07-01 15:45:00,92.3,46.6,29.98,SW,225,3.4,8.1,21,0.00,,,0.00,WUHU216HW,2013-07-01 21:45:00,
2013-07-01 15:47:00,92.7,45.8,29.98,North,0,6.3,8.1,20,0.00,,,0.00,WUHU216HW,2013-07-01 21:47:00,
2013-07-01 15:48:00,92.7,44.1,29.98,NNW,338,5.4,8.1,19,0.00,,,0.00,WUHU216HW,2013-07-01 21:48:00,
2013-07-01 15:50:00,92.9,44.2,29.98,NW,315,6.3,8.1,19,0.00,,,0.00,WUHU216HW,2013-07-01 21:50:00,
2013-07-01 15:52:00,92.9,42.5,29.98,North,0,3.4,9.8,18,0.00,,,0.00,WUHU216HW,2013-07-01 21:52:00,
2013-07-01 15:53:00,92.5,42.2,29.98,NW,315,2.2,9.8,18,0.00,,,0.00,WUHU216HW,2013-07-01 21:53:00,
2013-07-01 15:55:00,92.2,43.7,29.98,North,0,1.8,9.8,19,0.00,,,0.00,WUHU216HW,2013-07-01 21:55:00,
2013-07-01 15:57:00,92.2,46.5,29.98,North,0,2.7,9.8,21,0.00,,,0.00,WUHU216HW,2013-07-01 21:57:00,
2013-07-01 15:58:00,92.2,46.5,29.98,NNW,338,4.7,9.8,21,0.00,,,0.00,WUHU216HW,2013-07-01 21:58:00,
2013-07-01 16:00:00,92.0,46.4,29.98,North,0,1.8,9.8,21,0.00,,,0.00,WUHU216HW,2013-07-01 22:00:00,
2013-07-01 16:02:00,92.2,43.7,29.98,NNW,338,4.7,6.0,19,0.00,,,0.00,WUHU216HW,2013-07-01 22:02:00,
2013-07-01 16:03:00,92.2,43.7,29.98,NNE,23,4.0,6.0,19,0.00,,,0.00,WUHU216HW,2013-07-01 22:03:00,
2013-07-01 16:05:00,92.2,43.7,29.98,NNW,338,5.4,8.5,19,0.00,,,0.00,WUHU216HW,2013-07-01 22:05:00,
2013-07-01 16:07:00,92.2,41.9,29.98,North,0,3.4,8.5,18,0.00,,,0.00,WUHU216HW,2013-07-01 22:07:00,
2013-07-01 16:08:00,92.0,43.5,29.98,NNE,23,7.8,8.5,19,0.00,,,0.00,WUHU216HW,2013-07-01 22:08:00,
2013-07-01 16:10:00,91.8,41.6,29.98,NNW,338,6.9,8.5,18,0.00,,,0.00,WUHU216HW,2013-07-01 22:10:00,
2013-07-01 16:13:00,92.0,41.8,29.98,NNE,23,6.0,8.5,18,0.00,,,0.00,WUHU216HW,2013-07-01 22:13:00,
2013-07-01 16:15:00,92.3,43.8,29.99,NNW,338,3.4,7.8,19,0.00,,,0.00,WUHU216HW,2013-07-01 22:15:00,
2013-07-01 16:18:00,92.5,43.9,29.99,NW,315,4.5,7.8,19,0.00,,,0.00,WUHU216HW,2013-07-01 22:18:00,
2013-07-01 16:19:00,92.9,44.2,29.99,WNW,293,4.0,7.6,19,0.00,,,0.00,WUHU216HW,2013-07-01 22:19:00,
2013-07-01 16:21:00,93.1,46.1,29.99,NNW,338,5.6,7.6,20,0.00,,,0.00,WUHU216HW,2013-07-01 22:21:00,
2013-07-01 16:23:00,93.6,43.0,29.99,NNW,338,3.6,7.6,18,0.00,,,0.00,WUHU216HW,2013-07-01 22:23:00,
2013-07-01 16:24:00,93.6,44.8,29.99,NNW,338,1.8,7.6,19,0.00,,,0.00,WUHU216HW,2013-07-01 22:24:00,
2013-07-01 16:26:00,93.6,44.8,29.99,North,0,2.5,7.6,19,0.00,,,0.00,WUHU216HW,2013-07-01 22:26:00,
2013-07-01 16:28:00,93.6,44.8,29.99,WSW,248,0.7,7.6,19,0.00,,,0.00,WUHU216HW,2013-07-01 22:28:00,
2013-07-01 16:29:00,93.8,44.9,29.99,North,0,1.1,7.6,19,0.00,,,0.00,WUHU216HW,2013-07-01 22:29:00,
2013-07-01 16:31:00,93.6,44.8,29.98,NE,45,4.5,8.9,19,0.00,,,0.00,WUHU216HW,2013-07-01 22:31:00,
2013-07-01 16:33:00,93.6,47.6,29.98,ENE,68,7.8,8.9,21,0.00,,,0.00,WUHU216HW,2013-07-01 22:33:00,
2013-07-01 16:34:00,93.6,47.6,29.98,ENE,68,14.3,14.3,21,0.00,,,0.00,WUHU216HW,2013-07-01 22:34:00,
2013-07-01 16:36:00,93.6,49.9,29.98,NNW,338,13.0,14.3,23,0.00,,,0.00,WUHU216HW,2013-07-01 22:36:00,
2013-07-01 16:38:00,93.6,47.6,29.98,NNE,23,4.3,14.3,21,0.00,,,0.00,WUHU216HW,2013-07-01 22:38:00,
2013-07-01 16:39:00,93.6,47.6,29.98,NNW,338,6.9,14.3,21,0.00,,,0.00,WUHU216HW,2013-07-01 22:39:00,
2013-07-01 16:41:00,93.2,47.3,29.98,North,0,3.6,14.3,21,0.00,,,0.00,WUHU216HW,2013-07-01 22:41:00,
2013-07-01 16:44:00,92.9,47.1,29.98,NW,315,7.4,14.3,21,0.00,,,0.00,WUHU216HW,2013-07-01 22:44:00,
2013-07-01 16:45:00,92.9,47.1,29.98,NNW,338,3.4,13.0,21,0.00,,,0.00,WUHU216HW,2013-07-01 22:45:00,
2013-07-01 16:46:00,92.7,46.9,29.98,North,0,6.3,11.0,21,0.00,,,0.00,WUHU216HW,2013-07-01 22:46:00,
2013-07-01 16:47:00,92.5,46.8,29.98,North,0,7.6,8.5,21,0.00,,,0.00,WUHU216HW,2013-07-01 22:47:00,
2013-07-01 16:49:00,92.5,46.8,29.98,NNE,23,3.6,8.5,21,0.00,,,0.00,WUHU216HW,2013-07-01 22:49:00,
2013-07-01 16:50:00,92.3,46.6,29.98,NNE,23,3.1,8.5,21,0.00,,,0.00,WUHU216HW,2013-07-01 22:50:00,
2013-07-01 16:51:00,92.5,46.8,29.98,ENE,68,1.8,8.5,21,0.00,,,0.00,WUHU216HW,2013-07-01 22:51:00,
2013-07-01 16:52:00,92.7,46.9,29.98,NW,315,4.9,8.5,21,0.00,,,0.00,WUHU216HW,2013-07-01 22:52:00,
2013-07-01 16:54:00,93.1,44.4,29.97,West,270,5.4,8.5,19,0.00,,,0.00,WUHU216HW,2013-07-01 22:54:00,
2013-07-01 16:55:00,93.2,46.3,29.97,WNW,293,4.0,8.5,20,0.00,,,0.00,WUHU216HW,2013-07-01 22:55:00,
2013-07-01 16:56:00,93.4,44.6,29.98,NNW,338,7.8,7.8,19,0.00,,,0.00,WUHU216HW,2013-07-01 22:56:00,
2013-07-01 16:58:00,93.6,46.5,29.98,North,0,3.4,7.8,20,0.00,,,0.00,WUHU216HW,2013-07-01 22:58:00,
2013-07-01 17:00:00,93.6,44.8,29.98,NW,315,4.0,7.8,19,0.00,,,0.00,WUHU216HW,2013-07-01 23:00:00,
2013-07-01 17:01:00,93.4,47.5,29.98,North,0,4.9,7.8,21,0.00,,,0.00,WUHU216HW,2013-07-01 23:01:00,
2013-07-01 17:03:00,93.4,44.6,29.97,North,0,4.9,7.8,19,0.00,,,0.00,WUHU216HW,2013-07-01 23:03:00,
2013-07-01 17:05:00,92.9,44.2,29.98,NE,45,1.3,7.8,19,0.00,,,0.00,WUHU216HW,2013-07-01 23:05:00,
2013-07-01 17:06:00,92.9,49.2,29.97,NW,315,8.5,8.5,23,0.00,,,0.00,WUHU216HW,2013-07-01 23:06:00,
2013-07-01 17:07:00,93.1,47.3,29.98,North,0,8.1,8.5,21,0.00,,,0.00,WUHU216HW,2013-07-01 23:07:00,
2013-07-01 17:08:00,93.1,47.3,29.98,NNW,338,5.4,8.5,21,0.00,,,0.00,WUHU216HW,2013-07-01 23:08:00,
2013-07-01 17:10:00,93.2,47.3,29.98,NW,315,6.3,8.5,21,0.00,,,0.00,WUHU216HW,2013-07-01 23:10:00,
2013-07-01 17:11:00,93.2,47.3,29.98,NNW,338,3.4,8.5,21,0.00,,,0.00,WUHU216HW,2013-07-01 23:11:00,
2013-07-01 17:12:00,93.2,46.3,29.98,North,0,2.9,8.5,20,0.00,,,0.00,WUHU216HW,2013-07-01 23:12:00,
2013-07-01 17:13:00,93.1,44.4,29.98,North,0,5.4,8.5,19,0.00,,,0.00,WUHU216HW,2013-07-01 23:13:00,
2013-07-01 17:15:00,92.7,45.8,29.98,NNW,338,6.7,8.5,20,0.00,,,0.00,WUHU216HW,2013-07-01 23:15:00,
2013-07-01 17:16:00,92.7,46.9,29.98,NW,315,5.4,8.1,21,0.00,,,0.00,WUHU216HW,2013-07-01 23:16:00,
2013-07-01 17:17:00,92.9,47.1,29.98,NNW,338,4.7,8.1,21,0.00,,,0.00,WUHU216HW,2013-07-01 23:17:00,
2013-07-01 17:18:00,92.9,46.0,29.98,NNW,338,3.4,6.9,20,0.00,,,0.00,WUHU216HW,2013-07-01 23:18:00,
2013-07-01 17:20:00,93.4,44.6,29.98,NNE,23,4.0,6.7,19,0.00,,,0.00,WUHU216HW,2013-07-01 23:20:00,
2013-07-01 17:21:00,93.6,44.8,29.98,North,0,4.3,6.7,19,0.00,,,0.00,WUHU216HW,2013-07-01 23:21:00,
2013-07-01 17:22:00,93.6,44.8,29.98,North,0,3.6,6.7,19,0.00,,,0.00,WUHU216HW,2013-07-01 23:22:00,
2013-07-01 17:23:00,93.6,44.8,29.97,North,0,2.5,6.7,19,0.00,,,0.00,WUHU216HW,2013-07-01 23:23:00,
2013-07-01 17:25:00,93.6,44.8,29.98,North,0,7.4,8.5,19,0.00,,,0.00,WUHU216HW,2013-07-01 23:25:00,
2013-07-01 17:26:00,93.8,44.9,29.98,North,0,4.9,8.5,19,0.00,,,0.00,WUHU216HW,2013-07-01 23:26:00,
2013-07-01 17:27:00,93.8,44.9,29.98,NNW,338,6.5,8.5,19,0.00,,,0.00,WUHU216HW,2013-07-01 23:27:00,
2013-07-01 17:28:00,93.6,43.0,29.97,NNW,338,6.7,8.5,18,0.00,,,0.00,WUHU216HW,2013-07-01 23:28:00,
2013-07-01 17:30:00,93.1,44.4,29.97,North,0,7.6,8.5,19,0.00,,,0.00,WUHU216HW,2013-07-01 23:30:00,
2013-07-01 17:31:00,92.9,47.1,29.97,NNW,338,4.9,8.5,21,0.00,,,0.00,WUHU216HW,2013-07-01 23:31:00,
2013-07-01 17:32:00,92.9,47.1,29.97,North,0,4.5,8.5,21,0.00,,,0.00,WUHU216HW,2013-07-01 23:32:00,
2013-07-01 17:33:00,93.2,49.6,29.97,NNW,338,7.8,9.6,23,0.00,,,0.00,WUHU216HW,2013-07-01 23:33:00,
2013-07-01 17:35:00,93.2,47.3,29.97,NNW,338,6.3,9.6,21,0.00,,,0.00,WUHU216HW,2013-07-01 23:35:00,
2013-07-01 17:36:00,93.2,47.3,29.97,NNW,338,8.9,9.6,21,0.00,,,0.00,WUHU216HW,2013-07-01 23:36:00,
2013-07-01 17:37:00,93.1,47.3,29.97,NW,315,8.3,9.6,21,0.00,,,0.00,WUHU216HW,2013-07-01 23:37:00,
2013-07-01 17:38:00,93.1,47.3,29.97,NW,315,9.6,9.6,21,0.00,,,0.00,WUHU216HW,2013-07-01 23:38:00,
2013-07-01 17:41:00,93.4,47.5,29.97,NW,315,9.8,9.8,21,0.00,,,0.00,WUHU216HW,2013-07-01 23:41:00,
2013-07-01 17:42:00,93.4,42.8,29.97,North,0,4.3,11.4,18,0.00,,,0.00,WUHU216HW,2013-07-01 23:42:00,
2013-07-01 17:43:00,93.2,47.3,29.97,NW,315,9.6,11.4,21,0.00,,,0.00,WUHU216HW,2013-07-01 23:43:00,
2013-07-01 17:46:00,93.4,46.5,29.97,North,0,6.9,11.4,20,0.00,,,0.00,WUHU216HW,2013-07-01 23:46:00,
2013-07-01 17:47:00,93.4,47.5,29.97,NNW,338,10.1,11.4,21,0.00,,,0.00,WUHU216HW,2013-07-01 23:47:00,
2013-07-01 17:48:00,93.4,44.6,29.97,NW,315,10.5,11.4,19,0.00,,,0.00,WUHU216HW,2013-07-01 23:48:00,
2013-07-01 17:51:00,93.8,47.8,29.97,North,0,6.9,11.4,21,0.00,,,0.00,WUHU216HW,2013-07-01 23:51:00,
2013-07-01 17:52:00,94.0,48.0,29.97,NW,315,3.8,10.5,21,0.00,,,0.00,WUHU216HW,2013-07-01 23:52:00,
2013-07-01 17:53:00,94.1,45.2,29.97,NW,315,6.7,10.5,19,0.00,,,0.00,WUHU216HW,2013-07-01 23:53:00,
2013-07-01 17:56:00,94.0,45.1,29.97,NW,315,9.4,10.5,19,0.00,,,0.00,WUHU216HW,2013-07-01 23:56:00,
2013-07-01 17:57:00,93.8,44.9,29.97,NNW,338,7.8,10.5,19,0.00,,,0.00,WUHU216HW,2013-07-01 23:57:00,
2013-07-01 17:58:00,93.8,44.9,29.97,NNW,338,3.8,10.5,19,0.00,,,0.00,WUHU216HW,2013-07-01 23:58:00,
2013-07-01 18:01:00,94.0,45.1,29.97,NNW,338,8.7,9.8,19,0.00,,,0.00,WUHU216HW,2013-07-02 00:01:00,
2013-07-01 18:02:00,94.0,45.1,29.97,NNW,338,8.7,9.8,19,0.00,,,0.00,WUHU216HW,2013-07-02 00:02:00,
2013-07-01 18:03:00,94.1,45.2,29.97,North,0,6.9,9.8,19,0.00,,,0.00,WUHU216HW,2013-07-02 00:03:00,
2013-07-01 18:07:00,94.0,45.1,29.97,NNW,338,6.5,9.8,19,0.00,,,0.00,WUHU216HW,2013-07-02 00:07:00,
2013-07-01 18:08:00,93.8,44.9,29.97,NNW,338,6.3,9.8,19,0.00,,,0.00,WUHU216HW,2013-07-02 00:08:00,
2013-07-01 18:09:00,93.6,47.6,29.97,NW,315,5.8,9.8,21,0.00,,,0.00,WUHU216HW,2013-07-02 00:09:00,
2013-07-01 18:12:00,93.1,47.3,29.96,NW,315,7.4,9.2,21,0.00,,,0.00,WUHU216HW,2013-07-02 00:12:00,
2013-07-01 18:13:00,93.1,47.3,29.96,NW,315,7.2,9.2,21,0.00,,,0.00,WUHU216HW,2013-07-02 00:13:00,
2013-07-01 18:14:00,93.2,47.3,29.97,NNW,338,8.5,9.2,21,0.00,,,0.00,WUHU216HW,2013-07-02 00:14:00,
2013-07-01 18:17:00,93.2,47.3,29.96,NNW,338,8.5,9.2,21,0.00,,,0.00,WUHU216HW,2013-07-02 00:17:00,
2013-07-01 18:18:00,93.2,46.3,29.96,NW,315,7.4,9.2,20,0.00,,,0.00,WUHU216HW,2013-07-02 00:18:00,
2013-07-01 18:19:00,93.4,47.5,29.97,NW,315,6.0,9.2,21,0.00,,,0.00,WUHU216HW,2013-07-02 00:19:00,
2013-07-01 18:22:00,93.8,47.8,29.96,NW,315,5.6,8.9,21,0.00,,,0.00,WUHU216HW,2013-07-02 00:22:00,
2013-07-01 18:23:00,93.8,47.8,29.96,NNW,338,6.3,8.9,21,0.00,,,0.00,WUHU216HW,2013-07-02 00:23:00,
2013-07-01 18:24:00,94.0,48.0,29.96,NNW,338,6.9,8.9,21,0.00,,,0.00,WUHU216HW,2013-07-02 00:24:00,
2013-07-01 18:27:00,94.0,48.0,29.96,NNW,338,8.5,8.7,21,0.00,,,0.00,WUHU216HW,2013-07-02 00:27:00,
2013-07-01 18:29:00,94.0,48.0,29.97,NW,315,6.7,8.5,21,0.00,,,0.00,WUHU216HW,2013-07-02 00:29:00,
2013-07-01 18:30:00,94.0,45.1,29.96,North,0,4.5,8.5,19,0.00,,,0.00,WUHU216HW,2013-07-02 00:30:00,
2013-07-01 18:32:00,93.6,47.6,29.96,North,0,6.3,8.5,21,0.00,,,0.00,WUHU216HW,2013-07-02 00:32:00,
2013-07-01 18:34:00,93.2,49.6,29.96,North,0,2.7,8.5,23,0.00,,,0.00,WUHU216HW,2013-07-02 00:34:00,
2013-07-01 18:35:00,93.1,44.4,29.96,North,0,4.0,8.5,19,0.00,,,0.00,WUHU216HW,2013-07-02 00:35:00,
2013-07-01 18:37:00,92.9,47.1,29.96,NNW,338,4.7,8.3,21,0.00,,,0.00,WUHU216HW,2013-07-02 00:37:00,
2013-07-01 18:39:00,92.7,49.2,29.96,North,0,5.8,7.2,23,0.00,,,0.00,WUHU216HW,2013-07-02 00:39:00,
2013-07-01 18:40:00,92.7,49.2,29.96,North,0,4.0,7.2,23,0.00,,,0.00,WUHU216HW,2013-07-02 00:40:00,
2013-07-01 18:41:00,92.7,49.2,29.96,NNW,338,4.9,7.2,23,0.00,,,0.00,WUHU216HW,2013-07-02 00:41:00,
2013-07-01 18:42:00,92.9,49.2,29.96,NNW,338,6.9,7.2,23,0.00,,,0.00,WUHU216HW,2013-07-02 00:42:00,
2013-07-01 18:43:00,92.9,50.4,29.96,NNW,338,6.9,7.2,24,0.00,,,0.00,WUHU216HW,2013-07-02 00:43:00,
2013-07-01 18:44:00,93.1,49.4,29.96,NNW,338,5.8,7.2,23,0.00,,,0.00,WUHU216HW,2013-07-02 00:44:00,
2013-07-01 18:45:00,93.1,49.4,29.96,NW,315,3.8,7.2,23,0.00,,,0.00,WUHU216HW,2013-07-02 00:45:00,
2013-07-01 18:46:00,93.1,49.4,29.96,NNW,338,4.7,7.2,23,0.00,,,0.00,WUHU216HW,2013-07-02 00:46:00,
2013-07-01 18:47:00,93.2,47.3,29.96,NNW,338,7.6,7.6,21,0.00,,,0.00,WUHU216HW,2013-07-02 00:47:00,
2013-07-01 18:48:00,93.2,47.3,29.96,NNW,338,7.6,7.6,21,0.00,,,0.00,WUHU216HW,2013-07-02 00:48:00,
2013-07-01 18:49:00,93.4,49.7,29.96,NNW,338,4.9,7.6,23,0.00,,,0.00,WUHU216HW,2013-07-02 00:49:00,
2013-07-01 18:50:00,93.6,49.9,29.96,NNW,338,5.6,7.6,23,0.00,,,0.00,WUHU216HW,2013-07-02 00:50:00,
2013-07-01 18:51:00,93.6,49.9,29.96,NW,315,4.5,7.6,23,0.00,,,0.00,WUHU216HW,2013-07-02 00:51:00,
2013-07-01 18:53:00,94.0,50.1,29.96,NNW,338,5.1,7.6,23,0.00,,,0.00,WUHU216HW,2013-07-02 00:53:00,
2013-07-01 18:54:00,93.8,51.1,29.96,NNW,338,6.7,7.6,24,0.00,,,0.00,WUHU216HW,2013-07-02 00:54:00,
2013-07-01 18:56:00,93.8,52.2,29.96,North,0,4.5,7.6,25,0.00,,,0.00,WUHU216HW,2013-07-02 00:56:00,
2013-07-01 18:58:00,93.2,51.8,29.96,NNW,338,6.9,7.6,25,0.00,,,0.00,WUHU216HW,2013-07-02 00:58:00,
2013-07-01 18:59:00,92.9,53.6,29.96,NNW,338,5.4,7.4,27,0.00,,,0.00,WUHU216HW,2013-07-02 00:59:00,
2013-07-01 19:01:00,92.5,55.5,29.96,NNW,338,4.5,7.4,29,0.00,,,0.00,WUHU216HW,2013-07-02 01:01:00,
2013-07-01 19:02:00,92.2,55.3,29.96,NNW,338,6.5,7.4,29,0.00,,,0.00,WUHU216HW,2013-07-02 01:02:00,
2013-07-01 19:03:00,92.0,55.2,29.96,NW,315,6.0,7.4,29,0.00,,,0.00,WUHU216HW,2013-07-02 01:03:00,
2013-07-01 19:04:00,91.8,56.1,29.96,North,0,6.3,7.4,30,0.00,,,0.00,WUHU216HW,2013-07-02 01:04:00,
2013-07-01 19:06:00,91.6,54.8,29.96,NE,45,9.2,9.2,29,0.00,,,0.00,WUHU216HW,2013-07-02 01:06:00,
2013-07-01 19:07:00,91.4,54.7,29.96,NNW,338,4.5,9.2,29,0.00,,,0.00,WUHU216HW,2013-07-02 01:07:00,
2013-07-01 19:08:00,91.3,56.4,29.96,North,0,5.6,9.2,31,0.00,,,0.00,WUHU216HW,2013-07-02 01:08:00,
2013-07-01 19:10:00,91.1,56.3,29.96,North,0,4.0,9.2,31,0.00,,,0.00,WUHU216HW,2013-07-02 01:10:00,
2013-07-01 19:11:00,90.9,56.1,29.96,NNW,338,4.0,9.2,31,0.00,,,0.00,WUHU216HW,2013-07-02 01:11:00,
2013-07-01 19:12:00,90.9,56.1,29.96,North,0,5.4,9.2,31,0.00,,,0.00,WUHU216HW,2013-07-02 01:12:00,
2013-07-01 19:13:00,90.7,56.0,29.96,North,0,4.9,9.2,31,0.00,,,0.00,WUHU216HW,2013-07-02 01:13:00,
2013-07-01 19:14:00,90.7,56.0,29.96,North,0,4.9,9.2,31,0.00,,,0.00,WUHU216HW,2013-07-02 01:14:00,
2013-07-01 19:15:00,90.7,56.0,29.96,North,0,5.8,9.2,31,0.00,,,0.00,WUHU216HW,2013-07-02 01:15:00,
2013-07-01 19:16:00,90.7,56.7,29.96,North,0,7.2,7.6,32,0.00,,,0.00,WUHU216HW,2013-07-02 01:16:00,
2013-07-01 19:17:00,90.7,56.0,29.96,North,0,7.6,8.9,31,0.00,,,0.00,WUHU216HW,2013-07-02 01:17:00,
2013-07-01 19:19:00,90.7,56.0,29.96,North,0,9.2,9.2,31,0.00,,,0.00,WUHU216HW,2013-07-02 01:19:00,
2013-07-01 19:20:00,91.1,56.3,29.96,NNE,23,7.6,9.2,31,0.00,,,0.00,WUHU216HW,2013-07-02 01:20:00,
2013-07-01 19:21:00,91.3,55.6,29.96,NE,45,6.0,9.8,30,0.00,,,0.00,WUHU216HW,2013-07-02 01:21:00,
2013-07-01 19:23:00,91.4,54.7,29.96,NE,45,6.9,9.8,29,0.00,,,0.00,WUHU216HW,2013-07-02 01:23:00,
2013-07-01 19:24:00,91.6,56.0,29.96,NE,45,8.3,9.8,30,0.00,,,0.00,WUHU216HW,2013-07-02 01:24:00,
2013-07-01 19:25:00,91.8,55.0,29.96,NE,45,11.4,11.4,29,0.00,,,0.00,WUHU216HW,2013-07-02 01:25:00,
2013-07-01 19:26:00,91.8,56.1,29.96,NE,45,9.2,11.4,30,0.00,,,0.00,WUHU216HW,2013-07-02 01:26:00,
2013-07-01 19:28:00,91.8,55.0,29.96,NE,45,8.5,11.4,29,0.00,,,0.00,WUHU216HW,2013-07-02 01:28:00,
2013-07-01 19:29:00,92.0,55.2,29.96,NE,45,8.7,11.4,29,0.00,,,0.00,WUHU216HW,2013-07-02 01:29:00,
2013-07-01 19:30:00,92.0,55.2,29.96,NE,45,11.0,11.6,29,0.00,,,0.00,WUHU216HW,2013-07-02 01:30:00,
2013-07-01 19:31:00,91.8,55.0,29.96,NE,45,9.4,11.6,29,0.00,,,0.00,WUHU216HW,2013-07-02 01:31:00,
2013-07-01 19:33:00,91.8,55.0,29.96,NE,45,10.7,13.0,29,0.00,,,0.00,WUHU216HW,2013-07-02 01:33:00,
2013-07-01 19:34:00,91.8,55.0,29.96,NE,45,10.7,13.0,29,0.00,,,0.00,WUHU216HW,2013-07-02 01:34:00,
2013-07-01 19:35:00,91.8,55.0,29.96,NE,45,8.3,13.0,29,0.00,,,0.00,WUHU216HW,2013-07-02 01:35:00,
2013-07-01 19:36:00,91.8,55.0,29.96,NE,45,7.8,13.0,29,0.00,,,0.00,WUHU216HW,2013-07-02 01:36:00,
2013-07-01 19:39:00,91.8,55.0,29.96,NNE,23,9.4,13.0,29,0.00,,,0.00,WUHU216HW,2013-07-02 01:39:00,
2013-07-01 19:40:00,91.8,55.0,29.96,NE,45,8.7,13.0,29,0.00,,,0.00,WUHU216HW,2013-07-02 01:40:00,
2013-07-01 19:41:00,91.8,56.1,29.96,NE,45,6.7,13.0,30,0.00,,,0.00,WUHU216HW,2013-07-02 01:41:00,
2013-07-01 19:44:00,92.0,56.3,29.97,NE,45,6.3,9.8,30,0.00,,,0.00,WUHU216HW,2013-07-02 01:44:00,
2013-07-01 19:45:00,92.0,56.3,29.97,NE,45,5.1,9.8,30,0.00,,,0.00,WUHU216HW,2013-07-02 01:45:00,
2013-07-01 19:46:00,92.2,55.3,29.97,NE,45,9.2,9.4,29,0.00,,,0.00,WUHU216HW,2013-07-02 01:46:00,
2013-07-01 19:49:00,92.2,55.3,29.96,NE,45,8.5,10.3,29,0.00,,,0.00,WUHU216HW,2013-07-02 01:49:00,
2013-07-01 19:50:00,92.2,55.3,29.97,NE,45,6.3,10.3,29,0.00,,,0.00,WUHU216HW,2013-07-02 01:50:00,
2013-07-01 19:52:00,92.5,55.5,29.97,NE,45,5.8,10.3,29,0.00,,,0.00,WUHU216HW,2013-07-02 01:52:00,
2013-07-01 19:54:00,92.7,55.7,29.97,NNE,23,6.3,10.3,29,0.00,,,0.00,WUHU216HW,2013-07-02 01:54:00,
2013-07-01 19:55:00,92.7,55.7,29.97,NE,45,5.8,10.3,29,0.00,,,0.00,WUHU216HW,2013-07-02 01:55:00,
2013-07-01 19:56:00,92.9,55.9,29.97,NE,45,8.1,10.3,29,0.00,,,0.00,WUHU216HW,2013-07-02 01:56:00,
2013-07-01 19:57:00,92.9,54.7,29.97,ENE,68,8.5,10.3,28,0.00,,,0.00,WUHU216HW,2013-07-02 01:57:00,
2013-07-01 19:59:00,92.5,55.5,29.97,NE,45,7.4,10.3,29,0.00,,,0.00,WUHU216HW,2013-07-02 01:59:00,
2013-07-01 20:00:00,92.5,55.5,29.97,NE,45,6.0,10.3,29,0.00,,,0.00,WUHU216HW,2013-07-02 02:00:00,
2013-07-01 20:01:00,92.5,55.5,29.97,NE,45,6.0,10.3,29,0.00,,,0.00,WUHU216HW,2013-07-02 02:01:00,
2013-07-01 20:03:00,92.5,55.5,29.97,NE,45,7.6,10.3,29,0.00,,,0.00,WUHU216HW,2013-07-02 02:03:00,
2013-07-01 20:04:00,92.5,54.5,29.97,NE,45,9.4,9.4,28,0.00,,,0.00,WUHU216HW,2013-07-02 02:04:00,
2013-07-01 20:06:00,92.3,55.5,29.97,NE,45,8.5,9.4,29,0.00,,,0.00,WUHU216HW,2013-07-02 02:06:00,
2013-07-01 20:08:00,92.0,55.2,29.97,ENE,68,6.3,9.4,29,0.00,,,0.00,WUHU216HW,2013-07-02 02:08:00,
2013-07-01 20:10:00,92.0,55.2,29.97,ENE,68,8.9,9.4,29,0.00,,,0.00,WUHU216HW,2013-07-02 02:10:00,
2013-07-01 20:11:00,91.8,55.0,29.97,ENE,68,5.6,9.4,29,0.00,,,0.00,WUHU216HW,2013-07-02 02:11:00,
2013-07-01 20:12:00,91.8,55.0,29.97,NE,45,5.1,9.4,29,0.00,,,0.00,WUHU216HW,2013-07-02 02:12:00,
2013-07-01 20:13:00,91.8,55.0,29.97,NE,45,5.8,9.4,29,0.00,,,0.00,WUHU216HW,2013-07-02 02:13:00,
2013-07-01 20:15:00,91.8,55.0,29.97,NE,45,7.6,8.9,29,0.00,,,0.00,WUHU216HW,2013-07-02 02:15:00,
2013-07-01 20:16:00,92.0,56.3,29.97,NE,45,5.4,8.9,30,0.00,,,0.00,WUHU216HW,2013-07-02 02:16:00,
2013-07-01 20:17:00,92.2,55.3,29.97,NNE,23,4.7,8.9,29,0.00,,,0.00,WUHU216HW,2013-07-02 02:17:00,
2013-07-01 20:18:00,92.2,56.3,29.97,NE,45,4.0,8.9,30,0.00,,,0.00,WUHU216HW,2013-07-02 02:18:00,
2013-07-01 20:20:00,92.2,56.3,29.97,NNE,23,4.0,7.6,30,0.00,,,0.00,WUHU216HW,2013-07-02 02:20:00,
2013-07-01 20:21:00,92.2,56.3,29.97,North,0,3.4,7.6,30,0.00,,,0.00,WUHU216HW,2013-07-02 02:21:00,
2013-07-01 20:22:00,92.0,57.1,29.97,NNE,23,4.0,7.6,31,0.00,,,0.00,WUHU216HW,2013-07-02 02:22:00,
2013-07-01 20:23:00,91.8,56.9,29.97,NNE,23,3.4,7.6,31,0.00,,,0.00,WUHU216HW,2013-07-02 02:23:00,
2013-07-01 20:25:00,91.4,56.6,29.97,NNE,23,2.9,7.6,31,0.00,,,0.00,WUHU216HW,2013-07-02 02:25:00,
2013-07-01 20:26:00,91.4,56.6,29.97,North,0,2.5,6.7,31,0.00,,,0.00,WUHU216HW,2013-07-02 02:26:00,
2013-07-01 20:27:00,91.3,56.4,29.97,North,0,2.7,6.7,31,0.00,,,0.00,WUHU216HW,2013-07-02 02:27:00,
2013-07-01 20:28:00,91.1,56.3,29.97,North,0,2.0,5.4,31,0.00,,,0.00,WUHU216HW,2013-07-02 02:28:00,
2013-07-01 20:30:00,90.9,56.1,29.97,North,0,1.6,5.4,31,0.00,,,0.00,WUHU216HW,2013-07-02 02:30:00,
2013-07-01 20:31:00,90.9,56.1,29.97,North,0,1.8,4.5,31,0.00,,,0.00,WUHU216HW,2013-07-02 02:31:00,
2013-07-01 20:32:00,90.9,56.1,29.97,North,0,1.8,4.3,31,0.00,,,0.00,WUHU216HW,2013-07-02 02:32:00,
2013-07-01 20:33:00,90.7,56.0,29.97,North,0,2.5,4.3,31,0.00,,,0.00,WUHU216HW,2013-07-02 02:33:00,
2013-07-01 20:34:00,90.9,56.1,29.97,NNW,338,1.1,3.6,31,0.00,,,0.00,WUHU216HW,2013-07-02 02:34:00,
2013-07-01 20:36:00,90.9,56.1,29.97,WNW,293,2.0,2.7,31,0.00,,,0.00,WUHU216HW,2013-07-02 02:36:00,
2013-07-01 20:37:00,90.9,56.1,29.97,WNW,293,2.0,2.5,31,0.00,,,0.00,WUHU216HW,2013-07-02 02:37:00,
2013-07-01 20:38:00,90.7,55.2,29.97,West,270,2.2,2.5,30,0.00,,,0.00,WUHU216HW,2013-07-02 02:38:00,
2013-07-01 20:39:00,90.4,55.6,29.97,WSW,248,3.1,3.1,31,0.00,,,0.00,WUHU216HW,2013-07-02 02:39:00,
2013-07-01 20:41:00,90.0,55.3,29.97,WSW,248,2.9,3.1,31,0.00,,,0.00,WUHU216HW,2013-07-02 02:41:00,
2013-07-01 20:42:00,89.8,54.4,29.97,WSW,248,2.9,3.4,30,0.00,,,0.00,WUHU216HW,2013-07-02 02:42:00,
2013-07-01 20:43:00,89.5,55.6,29.97,WNW,293,6.0,6.0,32,0.00,,,0.00,WUHU216HW,2013-07-02 02:43:00,
2013-07-01 20:44:00,89.3,55.4,29.97,West,270,3.8,6.0,32,0.00,,,0.00,WUHU216HW,2013-07-02 02:44:00,
2013-07-01 20:46:00,88.4,55.4,29.97,WSW,248,5.1,6.0,33,0.00,,,0.00,WUHU216HW,2013-07-02 02:46:00,
2013-07-01 20:47:00,88.4,55.4,29.97,WSW,248,5.1,6.0,33,0.00,,,0.00,WUHU216HW,2013-07-02 02:47:00,
2013-07-01 20:48:00,87.8,55.0,29.97,SW,225,2.5,6.0,33,0.00,,,0.00,WUHU216HW,2013-07-02 02:48:00,
2013-07-01 20:49:00,87.8,55.0,29.97,West,270,6.3,6.3,33,0.00,,,0.00,WUHU216HW,2013-07-02 02:49:00,
2013-07-01 20:51:00,87.1,54.4,29.97,WSW,248,4.9,6.9,33,0.00,,,0.00,WUHU216HW,2013-07-02 02:51:00,
2013-07-01 20:52:00,86.9,54.3,29.97,WSW,248,4.9,6.9,33,0.00,,,0.00,WUHU216HW,2013-07-02 02:52:00,
2013-07-01 20:54:00,86.6,53.9,29.97,WSW,248,6.3,6.9,33,0.00,,,0.00,WUHU216HW,2013-07-02 02:54:00,
2013-07-01 20:56:00,86.2,54.5,29.97,WSW,248,6.3,6.9,34,0.00,,,0.00,WUHU216HW,2013-07-02 02:56:00,
2013-07-01 20:57:00,86.0,54.3,29.97,WSW,248,6.0,6.9,34,0.00,,,0.00,WUHU216HW,2013-07-02 02:57:00,
2013-07-01 20:59:00,85.7,54.0,29.97,WSW,248,5.4,6.9,34,0.00,,,0.00,WUHU216HW,2013-07-02 02:59:00,
2013-07-01 21:00:00,85.5,53.8,29.97,WSW,248,4.7,6.9,34,0.00,,,0.00,WUHU216HW,2013-07-02 03:00:00,
2013-07-01 21:02:00,85.0,54.1,29.97,WSW,248,5.4,6.5,35,0.00,,,0.00,WUHU216HW,2013-07-02 03:02:00,
2013-07-01 21:03:00,84.6,53.8,29.97,West,270,6.3,6.9,35,0.00,,,0.00,WUHU216HW,2013-07-02 03:03:00,
2013-07-01 21:05:00,83.9,54.7,29.97,WSW,248,4.0,6.9,37,0.00,,,0.00,WUHU216HW,2013-07-02 03:05:00,
2013-07-01 21:07:00,83.3,54.3,29.97,WSW,248,3.8,6.9,37,0.00,,,0.00,WUHU216HW,2013-07-02 03:07:00,
2013-07-01 21:08:00,83.2,54.1,29.97,WSW,248,4.3,6.9,37,0.00,,,0.00,WUHU216HW,2013-07-02 03:08:00,
2013-07-01 21:10:00,82.6,54.4,29.97,WSW,248,5.8,6.9,38,0.00,,,0.00,WUHU216HW,2013-07-02 03:10:00,
2013-07-01 21:12:00,82.1,54.7,29.98,WSW,248,6.5,6.9,39,0.00,,,0.00,WUHU216HW,2013-07-02 03:12:00,
2013-07-01 21:13:00,81.9,54.6,29.98,WSW,248,6.3,6.5,39,0.00,,,0.00,WUHU216HW,2013-07-02 03:13:00,
2013-07-01 21:15:00,81.5,54.2,29.98,WSW,248,6.7,6.7,39,0.00,,,0.00,WUHU216HW,2013-07-02 03:15:00,
2013-07-01 21:17:00,81.0,54.6,29.98,WSW,248,6.3,7.4,40,0.00,,,0.00,WUHU216HW,2013-07-02 03:17:00,
2013-07-01 21:18:00,80.8,54.4,29.98,WSW,248,5.1,7.4,40,0.00,,,0.00,WUHU216HW,2013-07-02 03:18:00,
2013-07-01 21:20:00,80.5,54.0,29.98,West,270,5.4,7.4,40,0.00,,,0.00,WUHU216HW,2013-07-02 03:20:00,
2013-07-01 21:23:00,80.3,54.5,29.98,WSW,248,5.4,7.4,41,0.00,,,0.00,WUHU216HW,2013-07-02 03:23:00,
2013-07-01 21:24:00,80.1,54.3,29.98,WSW,248,6.9,7.4,41,0.00,,,0.00,WUHU216HW,2013-07-02 03:24:00,
2013-07-01 21:25:00,79.9,54.2,29.98,West,270,6.7,7.4,41,0.00,,,0.00,WUHU216HW,2013-07-02 03:25:00,
2013-07-01 21:26:00,79.7,54.6,29.98,WSW,248,6.3,7.4,42,0.00,,,0.00,WUHU216HW,2013-07-02 03:26:00,
2013-07-01 21:28:00,79.2,54.1,29.98,WSW,248,7.2,7.8,42,0.00,,,0.00,WUHU216HW,2013-07-02 03:28:00,
2013-07-01 21:29:00,79.2,54.1,29.97,WSW,248,5.8,7.8,42,0.00,,,0.00,WUHU216HW,2013-07-02 03:29:00,
2013-07-01 21:30:00,78.8,53.8,29.98,SW,225,3.1,7.8,42,0.00,,,0.00,WUHU216HW,2013-07-02 03:30:00,
2013-07-01 21:31:00,78.8,53.2,29.98,West,270,4.7,7.8,41,0.00,,,0.00,WUHU216HW,2013-07-02 03:31:00,
2013-07-01 21:33:00,78.8,53.2,29.98,SSE,158,2.5,7.8,41,0.00,,,0.00,WUHU216HW,2013-07-02 03:33:00,
2013-07-01 21:34:00,78.8,53.2,29.98,SSE,158,4.9,7.8,41,0.00,,,0.00,WUHU216HW,2013-07-02 03:34:00,
2013-07-01 21:36:00,78.8,52.6,29.98,SSW,203,3.8,7.8,40,0.00,,,0.00,WUHU216HW,2013-07-02 03:36:00,
2013-07-01 21:38:00,78.8,52.6,29.98,SSW,203,4.7,6.9,40,0.00,,,0.00,WUHU216HW,2013-07-02 03:38:00,
2013-07-01 21:39:00,78.8,51.8,29.98,SSE,158,2.7,5.8,39,0.00,,,0.00,WUHU216HW,2013-07-02 03:39:00,
2013-07-01 21:41:00,79.0,51.9,29.98,SW,225,4.7,5.8,39,0.00,,,0.00,WUHU216HW,2013-07-02 03:41:00,
2013-07-01 21:43:00,79.2,52.1,29.98,WSW,248,4.7,5.8,39,0.00,,,0.00,WUHU216HW,2013-07-02 03:43:00,
2013-07-01 21:45:00,79.0,52.8,29.98,West,270,6.0,6.0,40,0.00,,,0.00,WUHU216HW,2013-07-02 03:45:00,
2013-07-01 21:46:00,79.0,52.8,29.98,West,270,5.4,6.3,40,0.00,,,0.00,WUHU216HW,2013-07-02 03:46:00,
2013-07-01 21:49:00,78.5,52.8,29.98,WSW,248,4.7,7.6,41,0.00,,,0.00,WUHU216HW,2013-07-02 03:49:00,
2013-07-01 21:50:00,78.3,52.7,29.97,SSW,203,4.9,7.6,41,0.00,,,0.00,WUHU216HW,2013-07-02 03:50:00,
2013-07-01 21:51:00,78.1,51.9,29.98,SSW,203,4.5,7.6,40,0.00,,,0.00,WUHU216HW,2013-07-02 03:51:00,
2013-07-01 21:54:00,78.1,51.9,29.97,SW,225,9.2,10.5,40,0.00,,,0.00,WUHU216HW,2013-07-02 03:54:00,
2013-07-01 21:56:00,78.1,51.9,29.98,SSW,203,9.4,10.5,40,0.00,,,0.00,WUHU216HW,2013-07-02 03:56:00,
2013-07-01 21:57:00,78.1,51.9,29.98,South,180,8.5,10.5,40,0.00,,,0.00,WUHU216HW,2013-07-02 03:57:00,
2013-07-01 21:59:00,78.3,52.1,29.98,SSW,203,7.2,10.5,40,0.00,,,0.00,WUHU216HW,2013-07-02 03:59:00,
2013-07-01 22:00:00,78.5,51.5,29.98,South,180,5.8,10.5,39,0.00,,,0.00,WUHU216HW,2013-07-02 04:00:00,
2013-07-01 22:01:00,78.5,51.5,29.98,SW,225,5.8,10.5,39,0.00,,,0.00,WUHU216HW,2013-07-02 04:01:00,
2013-07-01 22:06:00,78.8,51.8,29.98,SSW,203,4.9,8.5,39,0.00,,,0.00,WUHU216HW,2013-07-02 04:06:00,
2013-07-01 22:11:00,78.7,51.7,29.98,SSW,203,8.9,8.9,39,0.00,,,0.00,WUHU216HW,2013-07-02 04:11:00,
2013-07-01 22:12:00,78.7,51.7,29.98,South,180,11.0,11.0,39,0.00,,,0.00,WUHU216HW,2013-07-02 04:12:00,
2013-07-01 22:16:00,78.7,51.7,29.98,South,180,8.7,11.0,39,0.00,,,0.00,WUHU216HW,2013-07-02 04:16:00,
2013-07-01 22:17:00,78.7,51.7,29.98,South,180,7.8,11.0,39,0.00,,,0.00,WUHU216HW,2013-07-02 04:17:00,
2013-07-01 22:21:00,78.7,52.4,29.98,SSE,158,8.5,11.0,40,0.00,,,0.00,WUHU216HW,2013-07-02 04:21:00,
2013-07-01 22:22:00,78.7,52.4,29.98,SSW,203,6.3,10.5,40,0.00,,,0.00,WUHU216HW,2013-07-02 04:22:00,
2013-07-01 22:27:00,78.7,51.7,29.99,SSW,203,6.7,10.7,39,0.00,,,0.00,WUHU216HW,2013-07-02 04:27:00,
2013-07-01 22:28:00,78.7,51.7,29.99,SW,225,7.6,10.7,39,0.00,,,0.00,WUHU216HW,2013-07-02 04:28:00,
2013-07-01 22:32:00,78.5,52.2,29.99,SSE,158,6.7,10.7,40,0.00,,,0.00,WUHU216HW,2013-07-02 04:32:00,
2013-07-01 22:33:00,78.5,52.2,29.99,SSE,158,6.7,10.7,40,0.00,,,0.00,WUHU216HW,2013-07-02 04:33:00,
2013-07-01 22:37:00,78.1,51.9,29.99,South,180,7.4,8.5,40,0.00,,,0.00,WUHU216HW,2013-07-02 04:37:00,
2013-07-01 22:38:00,78.1,51.9,29.99,South,180,6.0,8.5,40,0.00,,,0.00,WUHU216HW,2013-07-02 04:38:00,
2013-07-01 22:39:00,78.1,51.9,29.99,South,180,5.6,8.5,40,0.00,,,0.00,WUHU216HW,2013-07-02 04:39:00,
2013-07-01 22:42:00,77.9,51.8,29.99,South,180,4.9,7.6,40,0.00,,,0.00,WUHU216HW,2013-07-02 04:42:00,
2013-07-01 22:43:00,77.9,51.8,29.99,SSW,203,4.9,7.6,40,0.00,,,0.00,WUHU216HW,2013-07-02 04:43:00,
2013-07-01 22:44:00,77.9,51.8,29.99,SSW,203,5.4,7.6,40,0.00,,,0.00,WUHU216HW,2013-07-02 04:44:00,
2013-07-01 22:48:00,77.8,51.6,29.99,SSW,203,5.6,7.2,40,0.00,,,0.00,WUHU216HW,2013-07-02 04:48:00,
2013-07-01 22:49:00,77.8,51.6,29.99,SSW,203,4.7,7.2,40,0.00,,,0.00,WUHU216HW,2013-07-02 04:49:00,
2013-07-01 22:53:00,77.4,51.3,29.99,South,180,7.2,7.2,40,0.00,,,0.00,WUHU216HW,2013-07-02 04:53:00,
2013-07-01 22:54:00,77.4,51.8,29.99,SW,225,3.6,7.2,41,0.00,,,0.00,WUHU216HW,2013-07-02 04:54:00,
2013-07-01 22:55:00,77.4,51.8,29.99,SSE,158,8.5,8.5,41,0.00,,,0.00,WUHU216HW,2013-07-02 04:55:00,
2013-07-01 22:58:00,77.2,51.8,29.99,SSW,203,6.0,8.5,41,0.00,,,0.00,WUHU216HW,2013-07-02 04:58:00,
2013-07-01 22:59:00,77.2,51.8,29.99,SSW,203,5.4,8.5,41,0.00,,,0.00,WUHU216HW,2013-07-02 04:59:00,
2013-07-01 23:00:00,77.2,51.8,29.99,SSW,203,7.6,8.5,41,0.00,,,0.00,WUHU216HW,2013-07-02 05:00:00,
2013-07-01 23:03:00,77.2,51.8,29.99,SSE,158,7.6,8.9,41,0.00,,,0.00,WUHU216HW,2013-07-02 05:03:00,
2013-07-01 23:05:00,77.2,51.8,29.99,SSW,203,8.7,8.9,41,0.00,,,0.00,WUHU216HW,2013-07-02 05:05:00,
2013-07-01 23:08:00,77.2,51.8,29.99,SSE,158,6.9,9.6,41,0.00,,,0.00,WUHU216HW,2013-07-02 05:08:00,
2013-07-01 23:09:00,77.2,51.8,29.99,SE,135,8.3,9.6,41,0.00,,,0.00,WUHU216HW,2013-07-02 05:09:00,
2013-07-01 23:10:00,77.2,51.8,29.99,SSW,203,8.3,9.6,41,0.00,,,0.00,WUHU216HW,2013-07-02 05:10:00,
2013-07-01 23:13:00,77.2,52.3,29.99,South,180,10.5,10.7,42,0.00,,,0.00,WUHU216HW,2013-07-02 05:13:00,
2013-07-01 23:14:00,77.2,52.3,29.99,SSW,203,7.6,10.7,42,0.00,,,0.00,WUHU216HW,2013-07-02 05:14:00,
2013-07-01 23:15:00,77.0,52.2,29.99,South,180,11.6,13.2,42,0.00,,,0.00,WUHU216HW,2013-07-02 05:15:00,
2013-07-01 23:18:00,77.0,52.2,29.99,SSE,158,8.7,13.2,42,0.00,,,0.00,WUHU216HW,2013-07-02 05:18:00,
2013-07-01 23:19:00,77.0,52.2,29.99,SSE,158,10.5,13.2,42,0.00,,,0.00,WUHU216HW,2013-07-02 05:19:00,
2013-07-01 23:20:00,77.0,52.2,29.99,South,180,10.7,13.2,42,0.00,,,0.00,WUHU216HW,2013-07-02 05:20:00,
2013-07-01 23:23:00,77.0,52.7,29.99,South,180,10.5,13.2,43,0.00,,,0.00,WUHU216HW,2013-07-02 05:23:00,
2013-07-01 23:24:00,77.0,52.2,29.99,South,180,10.7,13.2,42,0.00,,,0.00,WUHU216HW,2013-07-02 05:24:00,
2013-07-01 23:25:00,76.9,52.7,29.99,South,180,8.7,12.1,43,0.00,,,0.00,WUHU216HW,2013-07-02 05:25:00,
2013-07-01 23:26:00,76.9,52.7,29.99,South,180,9.8,11.4,43,0.00,,,0.00,WUHU216HW,2013-07-02 05:26:00,
2013-07-01 23:28:00,76.9,52.7,29.99,South,180,9.8,12.1,43,0.00,,,0.00,WUHU216HW,2013-07-02 05:28:00,
2013-07-01 23:29:00,76.7,52.5,29.99,South,180,11.6,14.1,43,0.00,,,0.00,WUHU216HW,2013-07-02 05:29:00,
2013-07-01 23:30:00,76.7,53.1,29.99,South,180,13.4,14.1,44,0.00,,,0.00,WUHU216HW,2013-07-02 05:30:00,
2013-07-01 23:31:00,76.7,53.1,29.99,South,180,12.3,14.1,44,0.00,,,0.00,WUHU216HW,2013-07-02 05:31:00,
2013-07-01 23:34:00,76.7,53.1,29.99,SSE,158,11.6,14.1,44,0.00,,,0.00,WUHU216HW,2013-07-02 05:34:00,
2013-07-01 23:35:00,76.7,53.1,29.99,SSE,158,15.9,15.9,44,0.00,,,0.00,WUHU216HW,2013-07-02 05:35:00,
2013-07-01 23:36:00,76.7,53.6,29.99,South,180,15.0,15.9,45,0.00,,,0.00,WUHU216HW,2013-07-02 05:36:00,
2013-07-01 23:39:00,76.7,53.6,29.99,South,180,10.1,15.9,45,0.00,,,0.00,WUHU216HW,2013-07-02 05:39:00,
2013-07-01 23:40:00,76.7,53.6,29.99,South,180,11.4,15.9,45,0.00,,,0.00,WUHU216HW,2013-07-02 05:40:00,
2013-07-01 23:41:00,76.7,53.6,29.99,SSW,203,14.5,15.9,45,0.00,,,0.00,WUHU216HW,2013-07-02 05:41:00,
2013-07-01 23:44:00,76.5,53.6,29.99,South,180,13.9,15.9,45,0.00,,,0.00,WUHU216HW,2013-07-02 05:44:00,
2013-07-01 23:45:00,76.5,53.6,29.99,SSW,203,14.3,15.9,45,0.00,,,0.00,WUHU216HW,2013-07-02 05:45:00,
2013-07-01 23:46:00,76.5,53.6,29.99,South,180,9.8,15.0,45,0.00,,,0.00,WUHU216HW,2013-07-02 05:46:00,
2013-07-01 23:49:00,76.5,53.6,29.99,SSW,203,11.6,14.5,45,0.00,,,0.00,WUHU216HW,2013-07-02 05:49:00,
2013-07-01 23:50:00,76.3,53.4,29.99,SSW,203,11.0,14.5,45,0.00,,,0.00,WUHU216HW,2013-07-02 05:50:00,
2013-07-01 23:51:00,76.3,53.4,29.99,SSE,158,12.5,14.5,45,0.00,,,0.00,WUHU216HW,2013-07-02 05:51:00,
2013-07-01 23:54:00,76.3,53.4,29.99,SSW,203,13.4,15.0,45,0.00,,,0.00,WUHU216HW,2013-07-02 05:54:00,
2013-07-01 23:55:00,76.3,53.4,29.99,SSW,203,11.4,15.0,45,0.00,,,0.00,WUHU216HW,2013-07-02 05:55:00,
2013-07-01 23:56:00,76.3,53.4,29.99,SSW,203,12.1,15.0,45,0.00,,,0.00,WUHU216HW,2013-07-02 05:56:00,
2013-07-01 23:57:00,76.3,53.4,29.99,SSW,203,13.4,15.0,45,0.00,,,0.00,WUHU216HW,2013-07-02 05:57:00,
2013-07-01 23:59:00,76.1,53.2,29.99,South,180,13.4,15.0,45,0.00,,,0.00,WUHU216HW,2013-07-02 05:59:00,